Time,TemperatureF,DewpointF,PressureIn,WindDirection,WindDirectionDegrees,WindSpeedMPH,WindSpeedGustMPH,Humidity,HourlyPrecipIn,Conditions,Clouds,dailyrainin,SoftwareType,DateUTC
2013-11-04 00:02:00,29.5,15.7,29.90,NE,36,0.0,0.0,56,0.00,,,0.00,Wunderground v.1.15,2013-11-04 07:02:00,
2013-11-04 00:03:00,29.5,15.3,29.91,NE,36,0.0,0.0,55,0.00,,,0.00,Wunderground v.1.15,2013-11-04 07:03:00,
2013-11-04 00:04:00,29.5,15.7,29.91,NE,36,0.0,0.0,56,0.00,,,0.00,Wunderground v.1.15,2013-11-04 07:04:00,
2013-11-04 00:07:00,29.5,16.5,29.91,NE,36,0.0,2.0,58,0.00,,,0.00,Wunderground v.1.15,2013-11-04 07:07:00,
2013-11-04 00:08:00,29.4,16.4,29.91,NE,36,0.0,2.0,58,0.00,,,0.00,Wunderground v.1.15,2013-11-04 07:08:00,
2013-11-04 00:09:00,29.4,16.4,29.91,NE,36,0.0,2.0,58,0.00,,,0.00,Wunderground v.1.15,2013-11-04 07:09:00,
2013-11-04 00:10:00,29.3,16.3,29.91,NE,36,0.0,0.0,58,0.00,,,0.00,Wunderground v.1.15,2013-11-04 07:10:00,
2013-11-04 00:12:00,29.3,16.7,29.91,NE,36,0.0,0.0,59,0.00,,,0.00,Wunderground v.1.15,2013-11-04 07:12:00,
2013-11-04 00:13:00,29.1,16.5,29.91,NE,36,0.0,0.0,59,0.00,,,0.00,Wunderground v.1.15,2013-11-04 07:13:00,
2013-11-04 00:14:00,29.1,16.5,29.91,NE,36,0.0,0.0,59,0.00,,,0.00,Wunderground v.1.15,2013-11-04 07:14:00,
2013-11-04 00:16:00,29.0,16.8,29.91,NE,36,0.0,0.0,60,0.00,,,0.00,Wunderground v.1.15,2013-11-04 07:16:00,
2013-11-04 00:17:00,28.8,16.6,29.91,NE,36,0.0,0.0,60,0.00,,,0.00,Wunderground v.1.15,2013-11-04 07:17:00,
2013-11-04 00:18:00,28.8,16.6,29.91,NE,36,0.0,0.0,60,0.00,,,0.00,Wunderground v.1.15,2013-11-04 07:18:00,
2013-11-04 00:19:00,28.8,16.6,29.90,NE,36,0.0,0.0,60,0.00,,,0.00,Wunderground v.1.15,2013-11-04 07:19:00,
2013-11-04 00:21:00,28.8,16.6,29.90,NE,36,0.0,0.0,60,0.00,,,0.00,Wunderground v.1.15,2013-11-04 07:21:00,
2013-11-04 00:23:00,28.8,16.6,29.90,NE,36,0.0,0.0,60,0.00,,,0.00,Wunderground v.1.15,2013-11-04 07:23:00,
2013-11-04 00:24:00,28.7,16.6,29.90,NE,36,0.0,0.0,60,0.00,,,0.00,Wunderground v.1.15,2013-11-04 07:24:00,
2013-11-04 00:27:00,28.2,16.5,29.90,NE,36,0.0,0.0,61,0.00,,,0.00,Wunderground v.1.15,2013-11-04 07:27:00,
2013-11-04 00:28:00,28.2,16.5,29.90,NE,36,0.0,0.0,61,0.00,,,0.00,Wunderground v.1.15,2013-11-04 07:28:00,
2013-11-04 00:29:00,28.1,16.4,29.90,NE,36,0.0,0.0,61,0.00,,,0.00,Wunderground v.1.15,2013-11-04 07:29:00,
2013-11-04 00:30:00,27.9,16.6,29.90,NE,36,0.0,0.0,62,0.00,,,0.00,Wunderground v.1.15,2013-11-04 07:30:00,
2013-11-04 00:33:00,27.6,15.9,29.91,NE,36,0.0,0.0,61,0.00,,,0.00,Wunderground v.1.15,2013-11-04 07:33:00,
2013-11-04 00:34:00,27.6,15.9,29.91,NE,36,0.0,0.0,61,0.00,,,0.00,Wunderground v.1.15,2013-11-04 07:34:00,
2013-11-04 00:35:00,27.5,15.8,29.91,NE,36,0.0,0.0,61,0.00,,,0.00,Wunderground v.1.15,2013-11-04 07:35:00,
2013-11-04 00:38:00,27.3,16.0,29.91,NE,36,0.0,0.0,62,0.00,,,0.00,Wunderground v.1.15,2013-11-04 07:38:00,
2013-11-04 00:39:00,27.2,15.5,29.91,NE,36,0.0,0.0,61,0.00,,,0.00,Wunderground v.1.15,2013-11-04 07:39:00,
2013-11-04 00:40:00,27.2,15.9,29.91,NE,36,0.0,0.0,62,0.00,,,0.00,Wunderground v.1.15,2013-11-04 07:40:00,
2013-11-04 00:41:00,27.0,15.7,29.91,NE,36,0.0,0.0,62,0.00,,,0.00,Wunderground v.1.15,2013-11-04 07:41:00,
2013-11-04 00:44:00,26.7,15.4,29.91,NE,36,0.0,0.0,62,0.00,,,0.00,Wunderground v.1.15,2013-11-04 07:44:00,
2013-11-04 00:45:00,26.6,15.7,29.91,NE,36,0.0,0.0,63,0.00,,,0.00,Wunderground v.1.15,2013-11-04 07:45:00,
2013-11-04 00:46:00,26.6,16.1,29.91,NE,36,0.0,0.0,64,0.00,,,0.00,Wunderground v.1.15,2013-11-04 07:46:00,
2013-11-04 00:49:00,26.7,16.1,29.92,NE,36,0.0,0.0,64,0.00,,,0.00,Wunderground v.1.15,2013-11-04 07:49:00,
2013-11-04 00:50:00,26.6,16.1,29.92,NE,36,0.0,0.0,64,0.00,,,0.00,Wunderground v.1.15,2013-11-04 07:50:00,
2013-11-04 00:51:00,26.6,16.1,29.92,NE,36,0.0,0.0,64,0.00,,,0.00,Wunderground v.1.15,2013-11-04 07:51:00,
2013-11-04 00:54:00,26.7,16.1,29.92,NE,36,0.0,0.0,64,0.00,,,0.00,Wunderground v.1.15,2013-11-04 07:54:00,
2013-11-04 00:55:00,26.7,16.1,29.92,NE,36,0.0,0.0,64,0.00,,,0.00,Wunderground v.1.15,2013-11-04 07:55:00,
2013-11-04 00:56:00,26.7,16.1,29.92,NE,36,0.0,0.0,64,0.00,,,0.00,Wunderground v.1.15,2013-11-04 07:56:00,
2013-11-04 00:57:00,26.7,16.5,29.92,NE,36,0.0,0.0,65,0.00,,,0.00,Wunderground v.1.15,2013-11-04 07:57:00,
2013-11-04 00:59:00,26.7,16.1,29.92,NE,36,0.0,0.0,64,0.00,,,0.00,Wunderground v.1.15,2013-11-04 07:59:00,
2013-11-04 01:00:00,26.7,16.5,29.92,NE,36,0.0,0.0,65,0.00,,,0.00,Wunderground v.1.15,2013-11-04 08:00:00,
2013-11-04 01:01:00,26.7,16.5,29.92,NE,36,0.0,0.0,65,0.00,,,0.00,Wunderground v.1.15,2013-11-04 08:01:00,
2013-11-04 01:02:00,26.9,16.7,29.92,NE,36,0.0,0.0,65,0.00,,,0.00,Wunderground v.1.15,2013-11-04 08:02:00,
2013-11-04 01:04:00,26.7,16.5,29.92,NE,36,0.0,0.0,65,0.00,,,0.00,Wunderground v.1.15,2013-11-04 08:04:00,
2013-11-04 01:05:00,26.7,16.5,29.92,NE,36,0.0,0.0,65,0.00,,,0.00,Wunderground v.1.15,2013-11-04 08:05:00,
2013-11-04 01:06:00,26.7,16.9,29.92,NE,36,0.0,0.0,66,0.00,,,0.00,Wunderground v.1.15,2013-11-04 08:06:00,
2013-11-04 01:07:00,26.6,16.8,29.92,NE,36,0.0,0.0,66,0.00,,,0.00,Wunderground v.1.15,2013-11-04 08:07:00,
2013-11-04 01:08:00,26.6,16.8,29.92,NE,36,0.0,0.0,66,0.00,,,0.00,Wunderground v.1.15,2013-11-04 08:08:00,
2013-11-04 01:09:00,26.4,16.6,29.92,NE,36,0.0,0.0,66,0.00,,,0.00,Wunderground v.1.15,2013-11-04 08:09:00,
2013-11-04 01:11:00,26.4,16.6,29.92,NE,36,0.0,0.0,66,0.00,,,0.00,Wunderground v.1.15,2013-11-04 08:11:00,
2013-11-04 01:12:00,26.4,16.6,29.92,NE,36,0.0,0.0,66,0.00,,,0.00,Wunderground v.1.15,2013-11-04 08:12:00,
2013-11-04 01:13:00,26.3,16.5,29.92,NE,36,0.0,0.0,66,0.00,,,0.00,Wunderground v.1.15,2013-11-04 08:13:00,
2013-11-04 01:16:00,26.3,16.8,29.92,NE,36,0.0,0.0,67,0.00,,,0.00,Wunderground v.1.15,2013-11-04 08:16:00,
2013-11-04 01:17:00,26.3,16.8,29.92,NE,36,0.0,0.0,67,0.00,,,0.00,Wunderground v.1.15,2013-11-04 08:17:00,
2013-11-04 01:18:00,26.1,16.6,29.92,NE,36,0.0,0.0,67,0.00,,,0.00,Wunderground v.1.15,2013-11-04 08:18:00,
2013-11-04 01:19:00,26.1,16.6,29.92,NE,36,0.0,0.0,67,0.00,,,0.00,Wunderground v.1.15,2013-11-04 08:19:00,
2013-11-04 01:21:00,26.0,16.9,29.92,NE,36,0.0,0.0,68,0.00,,,0.00,Wunderground v.1.15,2013-11-04 08:21:00,
2013-11-04 01:22:00,25.8,16.7,29.92,NE,36,0.0,0.0,68,0.00,,,0.00,Wunderground v.1.15,2013-11-04 08:22:00,
2013-11-04 01:23:00,25.8,16.7,29.92,NE,36,0.0,0.0,68,0.00,,,0.00,Wunderground v.1.15,2013-11-04 08:23:00,
2013-11-04 01:24:00,25.8,16.7,29.92,NE,36,0.0,0.0,68,0.00,,,0.00,Wunderground v.1.15,2013-11-04 08:24:00,
2013-11-04 01:26:00,25.8,17.0,29.92,NE,36,0.0,0.0,69,0.00,,,0.00,Wunderground v.1.15,2013-11-04 08:26:00,
2013-11-04 01:27:00,25.8,17.0,29.92,NE,36,0.0,0.0,69,0.00,,,0.00,Wunderground v.1.15,2013-11-04 08:27:00,
2013-11-04 01:29:00,25.7,16.9,29.92,NE,36,0.0,0.0,69,0.00,,,0.00,Wunderground v.1.15,2013-11-04 08:29:00,
2013-11-04 01:31:00,25.7,17.3,29.92,NE,36,0.0,0.0,70,0.00,,,0.00,Wunderground v.1.15,2013-11-04 08:31:00,
2013-11-04 01:32:00,25.8,17.4,29.92,NE,36,0.0,0.0,70,0.00,,,0.00,Wunderground v.1.15,2013-11-04 08:32:00,
2013-11-04 01:34:00,25.8,17.4,29.92,NE,36,0.0,0.0,70,0.00,,,0.00,Wunderground v.1.15,2013-11-04 08:34:00,
2013-11-04 01:36:00,25.8,17.4,29.92,NE,36,0.0,0.0,70,0.00,,,0.00,Wunderground v.1.15,2013-11-04 08:36:00,
2013-11-04 01:37:00,25.8,17.4,29.92,NE,36,0.0,0.0,70,0.00,,,0.00,Wunderground v.1.15,2013-11-04 08:37:00,
2013-11-04 01:38:00,25.8,17.4,29.92,NE,36,0.0,0.0,70,0.00,,,0.00,Wunderground v.1.15,2013-11-04 08:38:00,
2013-11-04 01:40:00,25.8,17.0,29.92,NE,36,0.0,0.0,69,0.00,,,0.00,Wunderground v.1.15,2013-11-04 08:40:00,
2013-11-04 01:41:00,25.8,16.7,29.92,NE,36,0.0,0.0,68,0.00,,,0.00,Wunderground v.1.15,2013-11-04 08:41:00,
2013-11-04 01:42:00,25.8,16.7,29.92,NE,36,0.0,0.0,68,0.00,,,0.00,Wunderground v.1.15,2013-11-04 08:42:00,
2013-11-04 01:43:00,25.8,16.7,29.92,NE,36,0.0,0.0,68,0.00,,,0.00,Wunderground v.1.15,2013-11-04 08:43:00,
2013-11-04 01:45:00,25.7,16.6,29.92,NE,36,0.0,0.0,68,0.00,,,0.00,Wunderground v.1.15,2013-11-04 08:45:00,
2013-11-04 01:46:00,25.7,16.9,29.92,NE,36,0.0,0.0,69,0.00,,,0.00,Wunderground v.1.15,2013-11-04 08:46:00,
2013-11-04 01:47:00,25.6,16.8,29.92,NE,36,0.0,0.0,69,0.00,,,0.00,Wunderground v.1.15,2013-11-04 08:47:00,
2013-11-04 01:48:00,25.6,16.8,29.92,NE,36,0.0,0.0,69,0.00,,,0.00,Wunderground v.1.15,2013-11-04 08:48:00,
2013-11-04 01:51:00,25.3,16.5,29.92,NE,36,0.0,0.0,69,0.00,,,0.00,Wunderground v.1.15,2013-11-04 08:51:00,
2013-11-04 01:52:00,25.3,16.5,29.92,NE,36,0.0,0.0,69,0.00,,,0.00,Wunderground v.1.15,2013-11-04 08:52:00,
2013-11-04 01:53:00,25.1,16.4,29.92,NE,36,0.0,0.0,69,0.00,,,0.00,Wunderground v.1.15,2013-11-04 08:53:00,
2013-11-04 01:56:00,25.0,16.6,29.92,NE,36,0.0,0.0,70,0.00,,,0.00,Wunderground v.1.15,2013-11-04 08:56:00,
2013-11-04 01:57:00,25.0,16.6,29.92,NE,36,0.0,0.0,70,0.00,,,0.00,Wunderground v.1.15,2013-11-04 08:57:00,
2013-11-04 01:58:00,25.0,16.6,29.92,NE,36,0.0,0.0,70,0.00,,,0.00,Wunderground v.1.15,2013-11-04 08:58:00,
2013-11-04 01:59:00,25.0,16.6,29.92,NE,36,0.0,0.0,70,0.00,,,0.00,Wunderground v.1.15,2013-11-04 08:59:00,
2013-11-04 02:02:00,24.7,16.6,29.92,NE,36,0.0,0.0,71,0.00,,,0.00,Wunderground v.1.15,2013-11-04 09:02:00,
2013-11-04 02:03:00,24.7,16.6,29.93,NE,36,0.0,0.0,71,0.00,,,0.00,Wunderground v.1.15,2013-11-04 09:03:00,
2013-11-04 02:04:00,24.7,16.6,29.93,NE,36,0.0,0.0,71,0.00,,,0.00,Wunderground v.1.15,2013-11-04 09:04:00,
2013-11-04 02:07:00,24.5,16.8,29.93,NE,36,0.0,0.0,72,0.00,,,0.00,Wunderground v.1.15,2013-11-04 09:07:00,
2013-11-04 02:08:00,24.5,16.8,29.93,NE,36,0.0,0.0,72,0.00,,,0.00,Wunderground v.1.15,2013-11-04 09:08:00,
2013-11-04 02:09:00,24.5,16.8,29.93,NE,36,0.0,0.0,72,0.00,,,0.00,Wunderground v.1.15,2013-11-04 09:09:00,
2013-11-04 02:12:00,24.7,17.0,29.93,NE,36,0.0,0.0,72,0.00,,,0.00,Wunderground v.1.15,2013-11-04 09:12:00,
2013-11-04 02:13:00,24.8,17.1,29.93,NE,36,0.0,0.0,72,0.00,,,0.00,Wunderground v.1.15,2013-11-04 09:13:00,
2013-11-04 02:14:00,24.8,17.1,29.93,NE,36,0.0,0.0,72,0.00,,,0.00,Wunderground v.1.15,2013-11-04 09:14:00,
2013-11-04 02:18:00,24.8,16.7,29.93,NE,36,0.0,0.0,71,0.00,,,0.00,Wunderground v.1.15,2013-11-04 09:18:00,
2013-11-04 02:19:00,24.8,16.7,29.91,NE,36,0.0,0.0,71,0.00,,,0.00,Wunderground v.1.15,2013-11-04 09:19:00,
2013-11-04 02:23:00,24.5,16.4,29.91,NE,36,0.0,0.0,71,0.00,,,0.00,Wunderground v.1.15,2013-11-04 09:23:00,
2013-11-04 02:24:00,24.5,16.4,29.91,NE,36,0.0,0.0,71,0.00,,,0.00,Wunderground v.1.15,2013-11-04 09:24:00,
2013-11-04 02:25:00,24.4,16.3,29.91,NE,36,0.0,0.0,71,0.00,,,0.00,Wunderground v.1.15,2013-11-04 09:25:00,
2013-11-04 02:28:00,24.1,16.1,29.91,NE,36,0.0,0.0,71,0.00,,,0.00,Wunderground v.1.15,2013-11-04 09:28:00,
2013-11-04 02:29:00,24.1,16.1,29.91,NE,36,0.0,0.0,71,0.00,,,0.00,Wunderground v.1.15,2013-11-04 09:29:00,
2013-11-04 02:30:00,24.1,16.1,29.91,NE,36,0.0,0.0,71,0.00,,,0.00,Wunderground v.1.15,2013-11-04 09:30:00,
2013-11-04 02:33:00,23.9,15.9,29.92,NE,36,0.0,0.0,71,0.00,,,0.00,Wunderground v.1.15,2013-11-04 09:33:00,
2013-11-04 02:34:00,23.9,15.9,29.92,NE,36,0.0,0.0,71,0.00,,,0.00,Wunderground v.1.15,2013-11-04 09:34:00,
2013-11-04 02:35:00,23.9,15.9,29.92,NE,36,0.0,0.0,71,0.00,,,0.00,Wunderground v.1.15,2013-11-04 09:35:00,
2013-11-04 02:39:00,23.8,15.8,29.92,NE,36,0.0,0.0,71,0.00,,,0.00,Wunderground v.1.15,2013-11-04 09:39:00,
2013-11-04 02:40:00,23.6,15.9,29.92,NE,36,0.0,0.0,72,0.00,,,0.00,Wunderground v.1.15,2013-11-04 09:40:00,
2013-11-04 02:41:00,23.6,15.9,29.92,NE,36,0.0,0.0,72,0.00,,,0.00,Wunderground v.1.15,2013-11-04 09:41:00,
2013-11-04 02:42:00,23.5,15.8,29.92,NE,36,0.0,0.0,72,0.00,,,0.00,Wunderground v.1.15,2013-11-04 09:42:00,
2013-11-04 02:44:00,23.3,15.6,29.92,NE,36,0.0,0.0,72,0.00,,,0.00,Wunderground v.1.15,2013-11-04 09:44:00,
2013-11-04 02:45:00,23.3,15.6,29.92,NE,36,0.0,0.0,72,0.00,,,0.00,Wunderground v.1.15,2013-11-04 09:45:00,
2013-11-04 02:46:00,23.3,15.9,29.92,NE,36,0.0,0.0,73,0.00,,,0.00,Wunderground v.1.15,2013-11-04 09:46:00,
2013-11-04 02:47:00,23.3,15.9,29.92,NE,36,0.0,0.0,73,0.00,,,0.00,Wunderground v.1.15,2013-11-04 09:47:00,
2013-11-04 02:50:00,23.6,16.2,29.91,NE,36,0.0,0.0,73,0.00,,,0.00,Wunderground v.1.15,2013-11-04 09:50:00,
2013-11-04 02:51:00,23.9,16.8,29.91,NE,37,4.0,6.0,74,0.00,,,0.00,Wunderground v.1.15,2013-11-04 09:51:00,
2013-11-04 02:52:00,24.8,17.7,29.91,NE,43,5.0,9.0,74,0.00,,,0.00,Wunderground v.1.15,2013-11-04 09:52:00,
2013-11-04 02:53:00,25.1,17.0,29.91,NE,44,6.0,9.0,71,0.00,,,0.00,Wunderground v.1.15,2013-11-04 09:53:00,
2013-11-04 02:55:00,26.6,17.1,29.91,NE,43,4.0,9.0,67,0.00,,,0.00,Wunderground v.1.15,2013-11-04 09:55:00,
2013-11-04 02:56:00,27.5,16.9,29.91,NE,43,3.0,9.0,64,0.00,,,0.00,Wunderground v.1.15,2013-11-04 09:56:00,
2013-11-04 02:57:00,27.9,16.9,29.91,NE,43,1.0,9.0,63,0.00,,,0.00,Wunderground v.1.15,2013-11-04 09:57:00,
2013-11-04 03:00:00,28.8,17.0,29.91,NE,43,1.0,3.0,61,0.00,,,0.00,Wunderground v.1.15,2013-11-04 10:00:00,
2013-11-04 03:01:00,29.1,16.9,29.91,NE,43,1.0,3.0,60,0.00,,,0.00,Wunderground v.1.15,2013-11-04 10:01:00,
2013-11-04 03:03:00,29.4,16.8,29.89,NE,43,0.0,3.0,59,0.00,,,0.00,Wunderground v.1.15,2013-11-04 10:03:00,
2013-11-04 03:05:00,29.7,16.7,29.89,NE,43,0.0,3.0,58,0.00,,,0.00,Wunderground v.1.15,2013-11-04 10:05:00,
2013-11-04 03:06:00,29.8,16.8,29.89,NE,43,0.0,3.0,58,0.00,,,0.00,Wunderground v.1.15,2013-11-04 10:06:00,
2013-11-04 03:08:00,29.8,17.2,29.89,NE,43,0.0,3.0,59,0.00,,,0.00,Wunderground v.1.15,2013-11-04 10:08:00,
2013-11-04 03:09:00,29.7,17.1,29.89,NE,43,0.0,3.0,59,0.00,,,0.00,Wunderground v.1.15,2013-11-04 10:09:00,
2013-11-04 03:11:00,29.4,17.2,29.89,NE,43,0.0,0.0,60,0.00,,,0.00,Wunderground v.1.15,2013-11-04 10:11:00,
2013-11-04 03:12:00,29.1,16.9,29.89,NE,43,0.0,0.0,60,0.00,,,0.00,Wunderground v.1.15,2013-11-04 10:12:00,
2013-11-04 03:13:00,29.0,16.8,29.89,NE,43,0.0,0.0,60,0.00,,,0.00,Wunderground v.1.15,2013-11-04 10:13:00,
2013-11-04 03:14:00,28.8,16.6,29.89,NE,43,0.0,0.0,60,0.00,,,0.00,Wunderground v.1.15,2013-11-04 10:14:00,
2013-11-04 03:16:00,28.7,16.6,29.89,NE,43,3.0,3.0,60,0.00,,,0.00,Wunderground v.1.15,2013-11-04 10:16:00,
2013-11-04 03:17:00,28.7,16.6,29.89,NE,43,0.0,3.0,60,0.00,,,0.00,Wunderground v.1.15,2013-11-04 10:17:00,
2013-11-04 03:18:00,28.8,16.3,29.92,NE,43,0.0,3.0,59,0.00,,,0.00,Wunderground v.1.15,2013-11-04 10:18:00,
2013-11-04 03:19:00,28.8,16.3,29.92,NE,43,0.0,3.0,59,0.00,,,0.00,Wunderground v.1.15,2013-11-04 10:19:00,
2013-11-04 03:21:00,29.0,16.8,29.92,NE,43,0.0,0.0,60,0.00,,,0.00,Wunderground v.1.15,2013-11-04 10:21:00,
2013-11-04 03:22:00,28.8,17.0,29.92,NE,43,0.0,0.0,61,0.00,,,0.00,Wunderground v.1.15,2013-11-04 10:22:00,
2013-11-04 03:23:00,28.7,16.9,29.92,NE,43,0.0,0.0,61,0.00,,,0.00,Wunderground v.1.15,2013-11-04 10:23:00,
2013-11-04 03:24:00,28.2,16.8,29.92,NE,43,0.0,0.0,62,0.00,,,0.00,Wunderground v.1.15,2013-11-04 10:24:00,
2013-11-04 03:26:00,27.5,16.5,29.92,NE,43,0.0,0.0,63,0.00,,,0.00,Wunderground v.1.15,2013-11-04 10:26:00,
2013-11-04 03:28:00,27.0,16.4,29.92,NE,43,0.0,0.0,64,0.00,,,0.00,Wunderground v.1.15,2013-11-04 10:28:00,
2013-11-04 03:29:00,26.7,16.5,29.92,NE,43,0.0,0.0,65,0.00,,,0.00,Wunderground v.1.15,2013-11-04 10:29:00,
2013-11-04 03:30:00,26.7,16.5,29.92,NE,43,0.0,0.0,65,0.00,,,0.00,Wunderground v.1.15,2013-11-04 10:30:00,
2013-11-04 03:32:00,26.3,16.1,29.92,NE,43,0.0,0.0,65,0.00,,,0.00,Wunderground v.1.15,2013-11-04 10:32:00,
2013-11-04 03:33:00,26.1,16.3,29.94,NE,43,0.0,0.0,66,0.00,,,0.00,Wunderground v.1.15,2013-11-04 10:33:00,
2013-11-04 03:34:00,26.1,16.6,29.94,NE,43,0.0,0.0,67,0.00,,,0.00,Wunderground v.1.15,2013-11-04 10:34:00,
2013-11-04 03:35:00,26.0,16.5,29.94,NE,43,0.0,0.0,67,0.00,,,0.00,Wunderground v.1.15,2013-11-04 10:35:00,
2013-11-04 03:36:00,25.8,16.3,29.94,NE,43,0.0,0.0,67,0.00,,,0.00,Wunderground v.1.15,2013-11-04 10:36:00,
2013-11-04 03:37:00,25.8,16.7,29.94,NE,43,0.0,0.0,68,0.00,,,0.00,Wunderground v.1.15,2013-11-04 10:37:00,
2013-11-04 03:38:00,25.7,16.6,29.94,NE,43,0.0,0.0,68,0.00,,,0.00,Wunderground v.1.15,2013-11-04 10:38:00,
2013-11-04 03:39:00,25.7,16.9,29.94,NE,43,0.0,0.0,69,0.00,,,0.00,Wunderground v.1.15,2013-11-04 10:39:00,
2013-11-04 03:41:00,25.7,16.9,29.94,NE,43,0.0,0.0,69,0.00,,,0.00,Wunderground v.1.15,2013-11-04 10:41:00,
2013-11-04 03:43:00,25.8,17.0,29.94,NE,43,0.0,0.0,69,0.00,,,0.00,Wunderground v.1.15,2013-11-04 10:43:00,
2013-11-04 03:44:00,25.8,17.0,29.94,NE,43,0.0,0.0,69,0.00,,,0.00,Wunderground v.1.15,2013-11-04 10:44:00,
2013-11-04 03:46:00,25.8,17.4,29.94,NE,43,0.0,0.0,70,0.00,,,0.00,Wunderground v.1.15,2013-11-04 10:46:00,
2013-11-04 03:48:00,26.0,17.6,29.93,NE,43,0.0,0.0,70,0.00,,,0.00,Wunderground v.1.15,2013-11-04 10:48:00,
2013-11-04 03:49:00,26.0,17.6,29.93,NE,43,0.0,0.0,70,0.00,,,0.00,Wunderground v.1.15,2013-11-04 10:49:00,
2013-11-04 03:50:00,26.0,17.6,29.93,NE,43,0.0,0.0,70,0.00,,,0.00,Wunderground v.1.15,2013-11-04 10:50:00,
2013-11-04 03:52:00,25.8,17.7,29.93,NE,43,0.0,0.0,71,0.00,,,0.00,Wunderground v.1.15,2013-11-04 10:52:00,
2013-11-04 03:53:00,25.8,17.7,29.93,NE,43,0.0,0.0,71,0.00,,,0.00,Wunderground v.1.15,2013-11-04 10:53:00,
2013-11-04 03:54:00,25.8,17.7,29.93,NE,43,0.0,0.0,71,0.00,,,0.00,Wunderground v.1.15,2013-11-04 10:54:00,
2013-11-04 03:55:00,25.8,18.0,29.93,NE,43,0.0,0.0,72,0.00,,,0.00,Wunderground v.1.15,2013-11-04 10:55:00,
2013-11-04 03:57:00,26.0,18.2,29.93,NE,43,0.0,0.0,72,0.00,,,0.00,Wunderground v.1.15,2013-11-04 10:57:00,
2013-11-04 03:58:00,26.0,18.2,29.93,NE,43,0.0,0.0,72,0.00,,,0.00,Wunderground v.1.15,2013-11-04 10:58:00,
2013-11-04 03:59:00,26.0,18.2,29.93,NE,43,0.0,0.0,72,0.00,,,0.00,Wunderground v.1.15,2013-11-04 10:59:00,
2013-11-04 04:00:00,26.0,18.2,29.93,NE,43,0.0,0.0,72,0.00,,,0.00,Wunderground v.1.15,2013-11-04 11:00:00,
2013-11-04 04:01:00,26.0,18.2,29.93,NE,43,0.0,0.0,72,0.00,,,0.00,Wunderground v.1.15,2013-11-04 11:01:00,
2013-11-04 04:03:00,26.3,18.5,29.93,NE,43,0.0,0.0,72,0.00,,,0.00,Wunderground v.1.15,2013-11-04 11:03:00,
2013-11-04 04:04:00,26.3,18.5,29.93,NE,43,0.0,0.0,72,0.00,,,0.00,Wunderground v.1.15,2013-11-04 11:04:00,
2013-11-04 04:06:00,26.6,18.8,29.93,NE,43,0.0,0.0,72,0.00,,,0.00,Wunderground v.1.15,2013-11-04 11:06:00,
2013-11-04 04:08:00,26.7,18.6,29.93,NE,43,0.0,0.0,71,0.00,,,0.00,Wunderground v.1.15,2013-11-04 11:08:00,
2013-11-04 04:09:00,26.7,18.6,29.93,NE,43,0.0,0.0,71,0.00,,,0.00,Wunderground v.1.15,2013-11-04 11:09:00,
2013-11-04 04:11:00,27.0,18.5,29.93,NE,43,0.0,0.0,70,0.00,,,0.00,Wunderground v.1.15,2013-11-04 11:11:00,
2013-11-04 04:14:00,27.2,18.4,29.93,NE,43,0.0,0.0,69,0.00,,,0.00,Wunderground v.1.15,2013-11-04 11:14:00,
2013-11-04 04:16:00,27.3,18.1,29.93,NE,43,0.0,0.0,68,0.00,,,0.00,Wunderground v.1.15,2013-11-04 11:16:00,
2013-11-04 04:19:00,27.6,18.1,29.94,NE,43,0.0,0.0,67,0.00,,,0.00,Wunderground v.1.15,2013-11-04 11:19:00,
2013-11-04 04:20:00,27.8,17.9,29.94,NE,43,0.0,0.0,66,0.00,,,0.00,Wunderground v.1.15,2013-11-04 11:20:00,
2013-11-04 04:21:00,27.8,17.9,29.94,NE,43,0.0,0.0,66,0.00,,,0.00,Wunderground v.1.15,2013-11-04 11:21:00,
2013-11-04 04:22:00,27.8,17.9,29.94,NE,43,0.0,0.0,66,0.00,,,0.00,Wunderground v.1.15,2013-11-04 11:22:00,
2013-11-04 04:24:00,28.1,18.5,29.94,NE,43,0.0,0.0,67,0.00,,,0.00,Wunderground v.1.15,2013-11-04 11:24:00,
2013-11-04 04:25:00,28.1,18.5,29.94,NE,43,0.0,0.0,67,0.00,,,0.00,Wunderground v.1.15,2013-11-04 11:25:00,
2013-11-04 04:26:00,28.1,18.5,29.94,NE,43,0.0,0.0,67,0.00,,,0.00,Wunderground v.1.15,2013-11-04 11:26:00,
2013-11-04 04:27:00,28.2,19.0,29.94,NE,43,0.0,0.0,68,0.00,,,0.00,Wunderground v.1.15,2013-11-04 11:27:00,
2013-11-04 04:29:00,28.4,18.8,29.94,NE,43,0.0,0.0,67,0.00,,,0.00,Wunderground v.1.15,2013-11-04 11:29:00,
2013-11-04 04:31:00,28.4,18.5,29.94,NE,43,0.0,0.0,66,0.00,,,0.00,Wunderground v.1.15,2013-11-04 11:31:00,
2013-11-04 04:32:00,28.5,18.9,29.94,NE,43,0.0,0.0,67,0.00,,,0.00,Wunderground v.1.15,2013-11-04 11:32:00,
2013-11-04 04:33:00,28.5,18.9,29.94,NE,43,0.0,0.0,67,0.00,,,0.00,Wunderground v.1.15,2013-11-04 11:33:00,
2013-11-04 04:34:00,28.7,19.1,29.93,NE,43,0.0,0.0,67,0.00,,,0.00,Wunderground v.1.15,2013-11-04 11:34:00,
2013-11-04 04:36:00,28.7,19.1,29.93,NE,43,0.0,0.0,67,0.00,,,0.00,Wunderground v.1.15,2013-11-04 11:36:00,
2013-11-04 04:38:00,28.7,19.1,29.93,NE,43,0.0,0.0,67,0.00,,,0.00,Wunderground v.1.15,2013-11-04 11:38:00,
2013-11-04 04:39:00,28.8,19.2,29.93,NE,43,0.0,0.0,67,0.00,,,0.00,Wunderground v.1.15,2013-11-04 11:39:00,
2013-11-04 04:40:00,28.8,19.2,29.93,NE,43,0.0,0.0,67,0.00,,,0.00,Wunderground v.1.15,2013-11-04 11:40:00,
2013-11-04 04:41:00,28.8,19.2,29.93,NE,43,0.0,0.0,67,0.00,,,0.00,Wunderground v.1.15,2013-11-04 11:41:00,
2013-11-04 04:42:00,28.8,19.2,29.93,NE,43,0.0,0.0,67,0.00,,,0.00,Wunderground v.1.15,2013-11-04 11:42:00,
2013-11-04 04:43:00,29.0,19.4,29.93,NE,43,2.0,4.0,67,0.00,,,0.00,Wunderground v.1.15,2013-11-04 11:43:00,
2013-11-04 04:44:00,29.0,19.4,29.93,NE,43,2.0,4.0,67,0.00,,,0.00,Wunderground v.1.15,2013-11-04 11:44:00,
2013-11-04 04:45:00,29.3,18.6,29.93,NE,43,3.0,4.0,64,0.00,,,0.00,Wunderground v.1.15,2013-11-04 11:45:00,
2013-11-04 04:47:00,29.5,18.4,29.93,NE,43,0.0,4.0,63,0.00,,,0.00,Wunderground v.1.15,2013-11-04 11:47:00,
2013-11-04 04:48:00,29.8,18.0,29.93,NE,43,0.0,4.0,61,0.00,,,0.00,Wunderground v.1.15,2013-11-04 11:48:00,
2013-11-04 04:49:00,29.8,18.0,29.93,NE,43,0.0,4.0,61,0.00,,,0.00,Wunderground v.1.15,2013-11-04 11:49:00,
2013-11-04 04:50:00,30.0,18.2,29.93,NE,43,0.0,1.0,61,0.00,,,0.00,Wunderground v.1.15,2013-11-04 11:50:00,
2013-11-04 04:51:00,30.1,17.9,29.93,NE,43,0.0,1.0,60,0.00,,,0.00,Wunderground v.1.15,2013-11-04 11:51:00,
2013-11-04 04:52:00,30.1,18.3,29.93,NE,43,0.0,1.0,61,0.00,,,0.00,Wunderground v.1.15,2013-11-04 11:52:00,
2013-11-04 04:53:00,30.1,18.6,29.93,NE,43,0.0,1.0,62,0.00,,,0.00,Wunderground v.1.15,2013-11-04 11:53:00,
2013-11-04 04:54:00,30.0,18.9,29.93,NE,43,0.0,1.0,63,0.00,,,0.00,Wunderground v.1.15,2013-11-04 11:54:00,
2013-11-04 04:55:00,29.8,18.7,29.93,NE,43,0.0,1.0,63,0.00,,,0.00,Wunderground v.1.15,2013-11-04 11:55:00,
2013-11-04 04:56:00,29.8,18.7,29.93,NE,43,0.0,1.0,63,0.00,,,0.00,Wunderground v.1.15,2013-11-04 11:56:00,
2013-11-04 04:57:00,29.7,18.6,29.93,NE,43,0.0,1.0,63,0.00,,,0.00,Wunderground v.1.15,2013-11-04 11:57:00,
2013-11-04 04:58:00,29.5,18.8,29.93,NE,43,0.0,1.0,64,0.00,,,0.00,Wunderground v.1.15,2013-11-04 11:58:00,
2013-11-04 05:00:00,29.3,18.6,29.93,NE,43,0.0,1.0,64,0.00,,,0.00,Wunderground v.1.15,2013-11-04 12:00:00,
2013-11-04 05:01:00,29.1,18.4,29.93,NE,43,0.0,0.0,64,0.00,,,0.00,Wunderground v.1.15,2013-11-04 12:01:00,
2013-11-04 05:02:00,29.0,18.7,29.93,NE,43,0.0,0.0,65,0.00,,,0.00,Wunderground v.1.15,2013-11-04 12:02:00,
2013-11-04 05:03:00,28.8,18.5,29.92,NE,43,0.0,0.0,65,0.00,,,0.00,Wunderground v.1.15,2013-11-04 12:03:00,
2013-11-04 05:05:00,28.7,18.4,29.92,NE,43,0.0,0.0,65,0.00,,,0.00,Wunderground v.1.15,2013-11-04 12:05:00,
2013-11-04 05:06:00,28.7,18.4,29.92,NE,43,0.0,0.0,65,0.00,,,0.00,Wunderground v.1.15,2013-11-04 12:06:00,
2013-11-04 05:08:00,28.5,18.6,29.92,NE,43,0.0,0.0,66,0.00,,,0.00,Wunderground v.1.15,2013-11-04 12:08:00,
2013-11-04 05:09:00,28.5,18.6,29.92,NE,43,0.0,0.0,66,0.00,,,0.00,Wunderground v.1.15,2013-11-04 12:09:00,
2013-11-04 05:10:00,28.5,18.9,29.92,NE,43,0.0,0.0,67,0.00,,,0.00,Wunderground v.1.15,2013-11-04 12:10:00,
2013-11-04 05:11:00,28.4,18.8,29.92,NE,43,0.0,0.0,67,0.00,,,0.00,Wunderground v.1.15,2013-11-04 12:11:00,
2013-11-04 05:14:00,28.1,18.9,29.92,NE,43,0.0,0.0,68,0.00,,,0.00,Wunderground v.1.15,2013-11-04 12:14:00,
2013-11-04 05:15:00,28.1,18.9,29.92,NE,43,0.0,0.0,68,0.00,,,0.00,Wunderground v.1.15,2013-11-04 12:15:00,
2013-11-04 05:16:00,28.1,19.2,29.92,NE,43,0.0,0.0,69,0.00,,,0.00,Wunderground v.1.15,2013-11-04 12:16:00,
2013-11-04 05:19:00,28.1,19.2,29.96,NE,43,0.0,0.0,69,0.00,,,0.00,Wunderground v.1.15,2013-11-04 12:19:00,
2013-11-04 05:20:00,28.1,19.2,29.96,NE,43,0.0,0.0,69,0.00,,,0.00,Wunderground v.1.15,2013-11-04 12:20:00,
2013-11-04 05:21:00,28.1,19.2,29.96,NE,43,0.0,0.0,69,0.00,,,0.00,Wunderground v.1.15,2013-11-04 12:21:00,
2013-11-04 05:22:00,27.9,19.0,29.96,NE,43,0.0,0.0,69,0.00,,,0.00,Wunderground v.1.15,2013-11-04 12:22:00,
2013-11-04 05:25:00,27.8,19.3,29.96,NE,43,0.0,0.0,70,0.00,,,0.00,Wunderground v.1.15,2013-11-04 12:25:00,
2013-11-04 05:26:00,27.8,19.3,29.96,NE,43,0.0,0.0,70,0.00,,,0.00,Wunderground v.1.15,2013-11-04 12:26:00,
2013-11-04 05:27:00,27.8,19.3,29.96,NE,43,0.0,0.0,70,0.00,,,0.00,Wunderground v.1.15,2013-11-04 12:27:00,
2013-11-04 05:31:00,27.6,19.4,29.96,NE,43,0.0,0.0,71,0.00,,,0.00,Wunderground v.1.15,2013-11-04 12:31:00,
2013-11-04 05:32:00,27.5,19.3,29.96,NE,43,0.0,0.0,71,0.00,,,0.00,Wunderground v.1.15,2013-11-04 12:32:00,
2013-11-04 05:33:00,27.5,19.3,29.96,NE,43,0.0,0.0,71,0.00,,,0.00,Wunderground v.1.15,2013-11-04 12:33:00,
2013-11-04 05:36:00,27.3,19.5,29.96,NE,43,0.0,0.0,72,0.00,,,0.00,Wunderground v.1.15,2013-11-04 12:36:00,
2013-11-04 05:37:00,27.2,19.4,29.96,NE,43,0.0,0.0,72,0.00,,,0.00,Wunderground v.1.15,2013-11-04 12:37:00,
2013-11-04 05:38:00,27.2,19.7,29.96,NE,43,0.0,0.0,73,0.00,,,0.00,Wunderground v.1.15,2013-11-04 12:38:00,
2013-11-04 05:41:00,27.2,19.7,29.96,NE,43,0.0,0.0,73,0.00,,,0.00,Wunderground v.1.15,2013-11-04 12:41:00,
2013-11-04 05:42:00,27.2,19.7,29.96,NE,43,0.0,0.0,73,0.00,,,0.00,Wunderground v.1.15,2013-11-04 12:42:00,
2013-11-04 05:45:00,27.2,19.7,29.96,NE,43,0.0,0.0,73,0.00,,,0.00,Wunderground v.1.15,2013-11-04 12:45:00,
2013-11-04 05:47:00,27.0,19.5,29.96,NE,43,0.0,0.0,73,0.00,,,0.00,Wunderground v.1.15,2013-11-04 12:47:00,
2013-11-04 05:48:00,27.0,19.5,29.96,NE,43,0.0,0.0,73,0.00,,,0.00,Wunderground v.1.15,2013-11-04 12:48:00,
2013-11-04 05:50:00,26.9,19.4,29.96,NE,43,0.0,0.0,73,0.00,,,0.00,Wunderground v.1.15,2013-11-04 12:50:00,
2013-11-04 05:52:00,26.9,19.4,29.96,NE,43,0.0,0.0,73,0.00,,,0.00,Wunderground v.1.15,2013-11-04 12:52:00,
2013-11-04 05:53:00,26.9,19.4,29.96,NE,43,0.0,0.0,73,0.00,,,0.00,Wunderground v.1.15,2013-11-04 12:53:00,
2013-11-04 05:56:00,26.7,19.2,29.96,NE,43,0.0,0.0,73,0.00,,,0.00,Wunderground v.1.15,2013-11-04 12:56:00,
2013-11-04 05:57:00,26.6,19.1,29.96,NE,43,0.0,0.0,73,0.00,,,0.00,Wunderground v.1.15,2013-11-04 12:57:00,
2013-11-04 05:58:00,26.6,19.1,29.96,NE,43,0.0,0.0,73,0.00,,,0.00,Wunderground v.1.15,2013-11-04 12:58:00,
2013-11-04 05:59:00,26.6,19.1,29.96,NE,43,0.0,0.0,73,0.00,,,0.00,Wunderground v.1.15,2013-11-04 12:59:00,
2013-11-04 06:01:00,26.4,18.9,29.96,NE,43,0.0,0.0,73,0.00,,,0.00,Wunderground v.1.15,2013-11-04 13:01:00,
2013-11-04 06:03:00,26.4,19.2,29.97,NE,43,0.0,0.0,74,0.00,,,0.00,Wunderground v.1.15,2013-11-04 13:03:00,
2013-11-04 06:04:00,26.4,19.2,29.97,NE,43,0.0,0.0,74,0.00,,,0.00,Wunderground v.1.15,2013-11-04 13:04:00,
2013-11-04 06:05:00,26.3,19.1,29.97,NE,43,0.0,0.0,74,0.00,,,0.00,Wunderground v.1.15,2013-11-04 13:05:00,
2013-11-04 06:06:00,26.3,19.1,29.97,NE,43,0.0,0.0,74,0.00,,,0.00,Wunderground v.1.15,2013-11-04 13:06:00,
2013-11-04 06:08:00,26.3,19.1,29.97,NE,43,0.0,0.0,74,0.00,,,0.00,Wunderground v.1.15,2013-11-04 13:08:00,
2013-11-04 06:09:00,26.3,19.1,29.97,NE,43,0.0,0.0,74,0.00,,,0.00,Wunderground v.1.15,2013-11-04 13:09:00,
2013-11-04 06:10:00,26.3,19.1,29.97,NE,43,0.0,0.0,74,0.00,,,0.00,Wunderground v.1.15,2013-11-04 13:10:00,
2013-11-04 06:11:00,26.3,19.1,29.97,NE,43,0.0,0.0,74,0.00,,,0.00,Wunderground v.1.15,2013-11-04 13:11:00,
2013-11-04 06:12:00,26.3,19.5,29.97,NE,43,0.0,0.0,75,0.00,,,0.00,Wunderground v.1.15,2013-11-04 13:12:00,
2013-11-04 06:14:00,26.3,19.5,29.97,NE,43,0.0,0.0,75,0.00,,,0.00,Wunderground v.1.15,2013-11-04 13:14:00,
2013-11-04 06:15:00,26.3,19.5,29.97,NE,43,0.0,0.0,75,0.00,,,0.00,Wunderground v.1.15,2013-11-04 13:15:00,
2013-11-04 06:17:00,26.3,19.5,29.97,NE,43,0.0,0.0,75,0.00,,,0.00,Wunderground v.1.15,2013-11-04 13:17:00,
2013-11-04 06:19:00,26.3,19.5,29.99,NE,43,0.0,0.0,75,0.00,,,0.00,Wunderground v.1.15,2013-11-04 13:19:00,
2013-11-04 06:20:00,26.1,19.3,29.99,NE,43,0.0,0.0,75,0.00,,,0.00,Wunderground v.1.15,2013-11-04 13:20:00,
2013-11-04 06:21:00,26.1,19.3,29.99,NE,44,0.0,0.0,75,0.00,,,0.00,Wunderground v.1.15,2013-11-04 13:21:00,
2013-11-04 06:22:00,26.1,19.3,29.99,NNE,33,0.0,0.0,75,0.00,,,0.00,Wunderground v.1.15,2013-11-04 13:22:00,
2013-11-04 06:23:00,26.1,19.3,29.99,NNE,33,0.0,0.0,75,0.00,,,0.00,Wunderground v.1.15,2013-11-04 13:23:00,
2013-11-04 06:24:00,26.1,19.3,29.99,NNE,33,0.0,0.0,75,0.00,,,0.00,Wunderground v.1.15,2013-11-04 13:24:00,
2013-11-04 06:26:00,26.1,19.6,29.99,NNE,33,0.0,0.0,76,0.00,,,0.00,Wunderground v.1.15,2013-11-04 13:26:00,
2013-11-04 06:27:00,26.1,19.6,29.99,NNE,33,0.0,0.0,76,0.00,,,0.00,Wunderground v.1.15,2013-11-04 13:27:00,
2013-11-04 06:28:00,26.3,19.8,29.99,NNE,33,0.0,0.0,76,0.00,,,0.00,Wunderground v.1.15,2013-11-04 13:28:00,
2013-11-04 06:29:00,26.1,19.6,29.99,NNE,33,0.0,0.0,76,0.00,,,0.00,Wunderground v.1.15,2013-11-04 13:29:00,
2013-11-04 06:31:00,26.1,19.6,29.99,NNE,33,0.0,0.0,76,0.00,,,0.00,Wunderground v.1.15,2013-11-04 13:31:00,
2013-11-04 06:32:00,26.1,19.9,29.99,NNE,33,0.0,0.0,77,0.00,,,0.00,Wunderground v.1.15,2013-11-04 13:32:00,
2013-11-04 06:33:00,26.1,19.9,29.99,NNE,33,0.0,0.0,77,0.00,,,0.00,Wunderground v.1.15,2013-11-04 13:33:00,
2013-11-04 06:34:00,26.1,19.9,29.99,NNE,33,0.0,0.0,77,0.00,,,0.00,Wunderground v.1.15,2013-11-04 13:34:00,
2013-11-04 06:36:00,26.1,19.9,29.99,NNE,33,0.0,0.0,77,0.00,,,0.00,Wunderground v.1.15,2013-11-04 13:36:00,
2013-11-04 06:37:00,26.1,19.9,29.99,NNE,33,0.0,0.0,77,0.00,,,0.00,Wunderground v.1.15,2013-11-04 13:37:00,
2013-11-04 06:38:00,26.1,19.9,29.99,NNE,33,0.0,0.0,77,0.00,,,0.00,Wunderground v.1.15,2013-11-04 13:38:00,
2013-11-04 06:39:00,26.1,19.9,29.99,NNE,33,0.0,0.0,77,0.00,,,0.00,Wunderground v.1.15,2013-11-04 13:39:00,
2013-11-04 06:41:00,26.1,19.9,29.99,NNE,33,0.0,0.0,77,0.00,,,0.00,Wunderground v.1.15,2013-11-04 13:41:00,
2013-11-04 06:42:00,26.1,19.9,29.99,NNE,33,0.0,0.0,77,0.00,,,0.00,Wunderground v.1.15,2013-11-04 13:42:00,
2013-11-04 06:43:00,26.1,19.9,29.99,NNE,33,0.0,0.0,77,0.00,,,0.00,Wunderground v.1.15,2013-11-04 13:43:00,
2013-11-04 06:44:00,26.1,19.9,29.99,NNE,33,0.0,0.0,77,0.00,,,0.00,Wunderground v.1.15,2013-11-04 13:44:00,
2013-11-04 06:45:00,26.1,19.9,29.99,NNE,33,0.0,0.0,77,0.00,,,0.00,Wunderground v.1.15,2013-11-04 13:45:00,
2013-11-04 06:46:00,26.1,19.9,29.99,NNE,33,0.0,0.0,77,0.00,,,0.00,Wunderground v.1.15,2013-11-04 13:46:00,
2013-11-04 06:47:00,26.1,19.9,29.99,NNE,33,0.0,0.0,77,0.00,,,0.00,Wunderground v.1.15,2013-11-04 13:47:00,
2013-11-04 06:48:00,26.1,20.2,29.99,NNE,33,0.0,0.0,78,0.00,,,0.00,Wunderground v.1.15,2013-11-04 13:48:00,
2013-11-04 06:49:00,26.1,20.2,29.99,NNE,33,0.0,0.0,78,0.00,,,0.00,Wunderground v.1.15,2013-11-04 13:49:00,
2013-11-04 06:50:00,26.1,20.2,29.99,NNE,33,0.0,0.0,78,0.00,,,0.00,Wunderground v.1.15,2013-11-04 13:50:00,
2013-11-04 06:51:00,26.1,20.2,29.99,NNE,33,0.0,0.0,78,0.00,,,0.00,Wunderground v.1.15,2013-11-04 13:51:00,
2013-11-04 06:52:00,26.1,20.2,29.99,NNE,33,0.0,0.0,78,0.00,,,0.00,Wunderground v.1.15,2013-11-04 13:52:00,
2013-11-04 06:53:00,26.1,20.2,29.99,NNE,33,0.0,0.0,78,0.00,,,0.00,Wunderground v.1.15,2013-11-04 13:53:00,
2013-11-04 06:55:00,26.1,20.2,29.99,NNE,33,0.0,0.0,78,0.00,,,0.00,Wunderground v.1.15,2013-11-04 13:55:00,
2013-11-04 06:56:00,26.1,20.2,29.99,NNE,33,0.0,0.0,78,0.00,,,0.00,Wunderground v.1.15,2013-11-04 13:56:00,
2013-11-04 06:57:00,26.1,20.2,29.99,NNE,33,0.0,0.0,78,0.00,,,0.00,Wunderground v.1.15,2013-11-04 13:57:00,
2013-11-04 06:58:00,26.1,20.2,29.99,NNE,33,0.0,0.0,78,0.00,,,0.00,Wunderground v.1.15,2013-11-04 13:58:00,
2013-11-04 07:00:00,26.0,20.1,29.99,NNE,33,0.0,0.0,78,0.00,,,0.00,Wunderground v.1.15,2013-11-04 14:00:00,
2013-11-04 07:01:00,26.0,20.1,29.99,NNE,33,0.0,0.0,78,0.00,,,0.00,Wunderground v.1.15,2013-11-04 14:01:00,
2013-11-04 07:02:00,26.0,20.1,29.99,NNE,33,0.0,0.0,78,0.00,,,0.00,Wunderground v.1.15,2013-11-04 14:02:00,
2013-11-04 07:03:00,26.0,20.1,29.99,NNE,33,0.0,0.0,78,0.00,,,0.00,Wunderground v.1.15,2013-11-04 14:03:00,
2013-11-04 07:06:00,25.8,19.9,30.00,NNE,33,0.0,0.0,78,0.00,,,0.00,Wunderground v.1.15,2013-11-04 14:06:00,
2013-11-04 07:08:00,25.8,20.2,30.00,NNE,33,0.0,0.0,79,0.00,,,0.00,Wunderground v.1.15,2013-11-04 14:08:00,
2013-11-04 07:11:00,25.7,20.1,30.00,NNE,33,0.0,0.0,79,0.00,,,0.00,Wunderground v.1.15,2013-11-04 14:11:00,
2013-11-04 07:12:00,25.7,20.1,30.00,NNE,33,0.0,0.0,79,0.00,,,0.00,Wunderground v.1.15,2013-11-04 14:12:00,
2013-11-04 07:13:00,25.7,20.1,30.00,NNE,33,0.0,0.0,79,0.00,,,0.00,Wunderground v.1.15,2013-11-04 14:13:00,
2013-11-04 07:14:00,25.7,20.1,30.00,NNE,33,0.0,0.0,79,0.00,,,0.00,Wunderground v.1.15,2013-11-04 14:14:00,
2013-11-04 07:17:00,25.7,20.1,30.00,NNE,33,0.0,0.0,79,0.00,,,0.00,Wunderground v.1.15,2013-11-04 14:17:00,
2013-11-04 07:18:00,25.7,20.4,30.00,NNE,33,0.0,0.0,80,0.00,,,0.00,Wunderground v.1.15,2013-11-04 14:18:00,
2013-11-04 07:19:00,25.7,20.4,30.01,NNE,33,0.0,0.0,80,0.00,,,0.00,Wunderground v.1.15,2013-11-04 14:19:00,
2013-11-04 07:22:00,25.8,20.5,30.01,NNE,33,0.0,0.0,80,0.00,,,0.00,Wunderground v.1.15,2013-11-04 14:22:00,
2013-11-04 07:23:00,25.8,20.5,30.01,NNE,33,0.0,0.0,80,0.00,,,0.00,Wunderground v.1.15,2013-11-04 14:23:00,
2013-11-04 07:24:00,25.8,20.5,30.01,NNE,33,0.0,0.0,80,0.00,,,0.00,Wunderground v.1.15,2013-11-04 14:24:00,
2013-11-04 07:25:00,25.8,20.5,30.01,NNE,33,0.0,0.0,80,0.00,,,0.00,Wunderground v.1.15,2013-11-04 14:25:00,
2013-11-04 07:27:00,26.0,21.0,30.01,NNE,33,0.0,0.0,81,0.00,,,0.00,Wunderground v.1.15,2013-11-04 14:27:00,
2013-11-04 07:28:00,26.1,21.1,30.01,NNE,33,0.0,0.0,81,0.00,,,0.00,Wunderground v.1.15,2013-11-04 14:28:00,
2013-11-04 07:30:00,26.1,21.1,30.01,NNE,33,0.0,0.0,81,0.00,,,0.00,Wunderground v.1.15,2013-11-04 14:30:00,
2013-11-04 07:32:00,26.3,21.3,30.01,NNE,33,0.0,0.0,81,0.00,,,0.00,Wunderground v.1.15,2013-11-04 14:32:00,
2013-11-04 07:33:00,26.4,21.4,30.01,NNE,33,0.0,0.0,81,0.00,,,0.00,Wunderground v.1.15,2013-11-04 14:33:00,
2013-11-04 07:34:00,26.6,21.6,30.01,NNE,33,0.0,0.0,81,0.00,,,0.00,Wunderground v.1.15,2013-11-04 14:34:00,
2013-11-04 07:35:00,26.6,21.6,30.01,NNE,33,0.0,0.0,81,0.00,,,0.00,Wunderground v.1.15,2013-11-04 14:35:00,
2013-11-04 07:36:00,26.6,21.6,30.01,NNE,33,0.0,0.0,81,0.00,,,0.00,Wunderground v.1.15,2013-11-04 14:36:00,
2013-11-04 07:38:00,26.9,21.8,30.01,NNE,33,0.0,0.0,81,0.00,,,0.00,Wunderground v.1.15,2013-11-04 14:38:00,
2013-11-04 07:40:00,27.0,21.9,30.01,NNE,33,0.0,0.0,81,0.00,,,0.00,Wunderground v.1.15,2013-11-04 14:40:00,
2013-11-04 07:41:00,27.2,22.1,30.01,NNE,33,0.0,0.0,81,0.00,,,0.00,Wunderground v.1.15,2013-11-04 14:41:00,
2013-11-04 07:42:00,27.2,22.1,30.01,NNE,33,0.0,0.0,81,0.00,,,0.00,Wunderground v.1.15,2013-11-04 14:42:00,
2013-11-04 07:43:00,27.3,22.2,30.01,NNE,33,0.0,0.0,81,0.00,,,0.00,Wunderground v.1.15,2013-11-04 14:43:00,
2013-11-04 07:44:00,27.3,22.2,30.01,NNE,33,1.0,1.0,81,0.00,,,0.00,Wunderground v.1.15,2013-11-04 14:44:00,
2013-11-04 07:45:00,27.6,22.5,30.01,NNE,33,0.0,2.0,81,0.00,,,0.00,Wunderground v.1.15,2013-11-04 14:45:00,
2013-11-04 07:46:00,27.8,22.4,30.01,NNE,33,0.0,2.0,80,0.00,,,0.00,Wunderground v.1.15,2013-11-04 14:46:00,
2013-11-04 07:47:00,28.2,22.5,30.01,NNE,33,0.0,2.0,79,0.00,,,0.00,Wunderground v.1.15,2013-11-04 14:47:00,
2013-11-04 07:49:00,28.4,22.7,30.01,NNE,33,0.0,2.0,79,0.00,,,0.00,Wunderground v.1.15,2013-11-04 14:49:00,
2013-11-04 07:50:00,28.7,22.7,30.01,NNE,33,0.0,0.0,78,0.00,,,0.00,Wunderground v.1.15,2013-11-04 14:50:00,
2013-11-04 07:51:00,28.7,22.7,30.01,NNE,33,0.0,0.0,78,0.00,,,0.00,Wunderground v.1.15,2013-11-04 14:51:00,
2013-11-04 07:52:00,28.8,22.8,30.01,NNE,33,0.0,0.0,78,0.00,,,0.00,Wunderground v.1.15,2013-11-04 14:52:00,
2013-11-04 07:54:00,29.0,23.0,30.01,NNE,33,0.0,0.0,78,0.00,,,0.00,Wunderground v.1.15,2013-11-04 14:54:00,
2013-11-04 07:56:00,29.3,23.3,30.01,NNE,33,0.0,0.0,78,0.00,,,0.00,Wunderground v.1.15,2013-11-04 14:56:00,
2013-11-04 07:58:00,29.5,23.2,30.01,NNE,33,0.0,0.0,77,0.00,,,0.00,Wunderground v.1.15,2013-11-04 14:58:00,
2013-11-04 07:59:00,29.7,23.7,30.01,NE,34,0.0,0.0,78,0.00,,,0.00,Wunderground v.1.15,2013-11-04 14:59:00,
2013-11-04 08:00:00,29.8,23.5,30.01,NE,34,0.0,0.0,77,0.00,,,0.00,Wunderground v.1.15,2013-11-04 15:00:00,
2013-11-04 08:01:00,30.1,23.4,30.01,NE,34,0.0,0.0,76,0.00,,,0.00,Wunderground v.1.15,2013-11-04 15:01:00,
2013-11-04 08:02:00,30.3,23.6,30.01,NE,34,0.0,0.0,76,0.00,,,0.00,Wunderground v.1.15,2013-11-04 15:02:00,
2013-11-04 08:03:00,30.4,23.4,30.01,NE,34,0.0,0.0,75,0.00,,,0.00,Wunderground v.1.15,2013-11-04 15:03:00,
2013-11-04 08:04:00,30.6,23.6,30.01,NE,34,0.0,0.0,75,0.00,,,0.00,Wunderground v.1.15,2013-11-04 15:04:00,
2013-11-04 08:05:00,30.7,23.4,30.01,NE,34,0.0,0.0,74,0.00,,,0.00,Wunderground v.1.15,2013-11-04 15:05:00,
2013-11-04 08:06:00,31.0,23.7,30.01,NE,34,0.0,0.0,74,0.00,,,0.00,Wunderground v.1.15,2013-11-04 15:06:00,
2013-11-04 08:08:00,31.2,23.9,30.01,NE,34,0.0,0.0,74,0.00,,,0.00,Wunderground v.1.15,2013-11-04 15:08:00,
2013-11-04 08:09:00,31.3,24.0,30.01,NE,34,0.0,0.0,74,0.00,,,0.00,Wunderground v.1.15,2013-11-04 15:09:00,
2013-11-04 08:10:00,31.5,23.8,30.01,NE,34,0.0,0.0,73,0.00,,,0.00,Wunderground v.1.15,2013-11-04 15:10:00,
2013-11-04 08:12:00,31.6,23.3,30.01,NE,34,0.0,0.0,71,0.00,,,0.00,Wunderground v.1.15,2013-11-04 15:12:00,
2013-11-04 08:13:00,31.9,23.9,30.01,NE,34,0.0,0.0,72,0.00,,,0.00,Wunderground v.1.15,2013-11-04 15:13:00,
2013-11-04 08:14:00,31.9,23.9,30.01,NE,34,0.0,0.0,72,0.00,,,0.00,Wunderground v.1.15,2013-11-04 15:14:00,
2013-11-04 08:16:00,32.2,23.8,30.01,NE,34,0.0,0.0,71,0.00,,,0.00,Wunderground v.1.15,2013-11-04 15:16:00,
2013-11-04 08:17:00,32.4,23.7,30.01,NE,34,0.0,0.0,70,0.00,,,0.00,Wunderground v.1.15,2013-11-04 15:17:00,
2013-11-04 08:19:00,32.7,23.3,30.00,NE,34,0.0,0.0,68,0.00,,,0.00,Wunderground v.1.15,2013-11-04 15:19:00,
2013-11-04 08:20:00,32.8,23.0,30.00,NE,46,4.0,4.0,67,0.00,,,0.00,Wunderground v.1.15,2013-11-04 15:20:00,
2013-11-04 08:21:00,33.1,22.6,30.00,East,96,2.0,4.0,65,0.00,,,0.00,Wunderground v.1.15,2013-11-04 15:21:00,
2013-11-04 08:22:00,33.4,22.5,30.00,SE,125,1.0,6.0,64,0.00,,,0.00,Wunderground v.1.15,2013-11-04 15:22:00,
2013-11-04 08:24:00,33.7,22.1,30.00,SE,125,0.0,6.0,62,0.00,,,0.00,Wunderground v.1.15,2013-11-04 15:24:00,
2013-11-04 08:25:00,33.8,22.1,30.00,SE,125,0.0,6.0,62,0.00,,,0.00,Wunderground v.1.15,2013-11-04 15:25:00,
2013-11-04 08:27:00,34.1,21.7,30.00,SE,125,0.0,6.0,60,0.00,,,0.00,Wunderground v.1.15,2013-11-04 15:27:00,
2013-11-04 08:28:00,34.3,21.8,30.00,SE,125,3.0,6.0,60,0.00,,,0.00,Wunderground v.1.15,2013-11-04 15:28:00,
2013-11-04 08:29:00,34.6,22.1,30.00,SE,125,0.0,6.0,60,0.00,,,0.00,Wunderground v.1.15,2013-11-04 15:29:00,
2013-11-04 08:31:00,34.7,21.8,30.00,SE,125,0.0,1.0,59,0.00,,,0.00,Wunderground v.1.15,2013-11-04 15:31:00,
2013-11-04 08:32:00,34.7,21.8,30.00,SE,125,0.0,1.0,59,0.00,,,0.00,Wunderground v.1.15,2013-11-04 15:32:00,
2013-11-04 08:33:00,35.0,21.7,29.99,SE,125,0.0,1.0,58,0.00,,,0.00,Wunderground v.1.15,2013-11-04 15:33:00,
2013-11-04 08:34:00,35.0,21.7,29.99,SE,125,0.0,1.0,58,0.00,,,0.00,Wunderground v.1.15,2013-11-04 15:34:00,
2013-11-04 08:35:00,35.2,21.5,29.99,SE,125,0.0,1.0,57,0.00,,,0.00,Wunderground v.1.15,2013-11-04 15:35:00,
2013-11-04 08:37:00,35.3,21.6,29.99,SE,125,0.0,1.0,57,0.00,,,0.00,Wunderground v.1.15,2013-11-04 15:37:00,
2013-11-04 08:38:00,35.3,21.2,29.99,SE,125,4.0,4.0,56,0.00,,,0.00,Wunderground v.1.15,2013-11-04 15:38:00,
2013-11-04 08:39:00,35.5,21.3,29.99,SE,125,0.0,4.0,56,0.00,,,0.00,Wunderground v.1.15,2013-11-04 15:39:00,
2013-11-04 08:40:00,35.5,21.3,29.99,SE,125,0.0,0.0,56,0.00,,,0.00,Wunderground v.1.15,2013-11-04 15:40:00,
2013-11-04 08:42:00,35.8,21.2,29.99,SE,124,3.0,4.0,55,0.00,,,0.00,Wunderground v.1.15,2013-11-04 15:42:00,
2013-11-04 08:43:00,35.8,21.2,29.99,SE,124,2.0,4.0,55,0.00,,,0.00,Wunderground v.1.15,2013-11-04 15:43:00,
2013-11-04 08:44:00,35.9,20.9,29.99,ESE,123,0.0,4.0,54,0.00,,,0.00,Wunderground v.1.15,2013-11-04 15:44:00,
2013-11-04 08:45:00,35.9,20.9,29.99,ESE,123,1.0,4.0,54,0.00,,,0.00,Wunderground v.1.15,2013-11-04 15:45:00,
2013-11-04 08:47:00,36.0,20.5,29.99,ESE,120,1.0,5.0,53,0.00,,,0.00,Wunderground v.1.15,2013-11-04 15:47:00,
2013-11-04 08:48:00,36.2,20.7,29.99,ESE,120,0.0,5.0,53,0.00,,,0.00,Wunderground v.1.15,2013-11-04 15:48:00,
2013-11-04 08:50:00,36.3,20.8,29.98,ESE,118,4.0,4.0,53,0.00,,,0.00,Wunderground v.1.15,2013-11-04 15:50:00,
2013-11-04 08:51:00,36.3,20.8,29.98,ESE,118,4.0,4.0,53,0.00,,,0.00,Wunderground v.1.15,2013-11-04 15:51:00,
2013-11-04 08:52:00,36.5,20.1,29.98,ESE,119,2.0,6.0,51,0.00,,,0.00,Wunderground v.1.15,2013-11-04 15:52:00,
2013-11-04 08:53:00,36.6,20.2,29.98,ESE,121,2.0,6.0,51,0.00,,,0.00,Wunderground v.1.15,2013-11-04 15:53:00,
2013-11-04 08:54:00,36.6,20.2,29.98,ESE,122,3.0,6.0,51,0.00,,,0.00,Wunderground v.1.15,2013-11-04 15:54:00,
2013-11-04 08:55:00,36.6,20.2,29.98,ESE,122,0.0,6.0,51,0.00,,,0.00,Wunderground v.1.15,2013-11-04 15:55:00,
2013-11-04 08:56:00,36.8,20.3,29.98,ESE,112,0.0,6.0,51,0.00,,,0.00,Wunderground v.1.15,2013-11-04 15:56:00,
2013-11-04 08:57:00,36.9,20.4,29.98,ESE,113,4.0,6.0,51,0.00,,,0.00,Wunderground v.1.15,2013-11-04 15:57:00,
2013-11-04 08:58:00,36.9,20.0,29.98,ESE,108,2.0,6.0,50,0.00,,,0.00,Wunderground v.1.15,2013-11-04 15:58:00,
2013-11-04 08:59:00,36.9,20.0,29.98,ESE,108,0.0,6.0,50,0.00,,,0.00,Wunderground v.1.15,2013-11-04 15:59:00,
2013-11-04 09:00:00,37.0,20.1,29.98,ESE,108,2.0,3.0,50,0.00,,,0.00,Wunderground v.1.15,2013-11-04 16:00:00,
2013-11-04 09:02:00,37.0,20.1,29.98,ESE,108,0.0,3.0,50,0.00,,,0.00,Wunderground v.1.15,2013-11-04 16:02:00,
2013-11-04 09:03:00,37.2,19.8,29.98,SE,136,1.0,6.0,49,0.00,,,0.00,Wunderground v.1.15,2013-11-04 16:03:00,
2013-11-04 09:04:00,37.3,19.9,29.98,SE,136,0.0,6.0,49,0.00,,,0.00,Wunderground v.1.15,2013-11-04 16:04:00,
2013-11-04 09:05:00,37.3,19.9,29.98,SE,136,0.0,6.0,49,0.00,,,0.00,Wunderground v.1.15,2013-11-04 16:05:00,
2013-11-04 09:07:00,37.3,19.9,29.98,SE,136,6.0,6.0,49,0.00,,,0.00,Wunderground v.1.15,2013-11-04 16:07:00,
2013-11-04 09:08:00,37.3,19.9,29.98,SE,137,3.0,6.0,49,0.00,,,0.00,Wunderground v.1.15,2013-11-04 16:08:00,
2013-11-04 09:09:00,37.3,19.4,29.98,SE,134,3.0,6.0,48,0.00,,,0.00,Wunderground v.1.15,2013-11-04 16:09:00,
2013-11-04 09:11:00,37.3,19.4,29.98,SE,133,2.0,3.0,48,0.00,,,0.00,Wunderground v.1.15,2013-11-04 16:11:00,
2013-11-04 09:12:00,37.3,19.4,29.98,SE,134,0.0,3.0,48,0.00,,,0.00,Wunderground v.1.15,2013-11-04 16:12:00,
2013-11-04 09:13:00,37.3,19.4,29.98,SE,133,2.0,3.0,48,0.00,,,0.00,Wunderground v.1.15,2013-11-04 16:13:00,
2013-11-04 09:14:00,37.3,19.4,29.98,ESE,102,4.0,6.0,48,0.00,,,0.00,Wunderground v.1.15,2013-11-04 16:14:00,
2013-11-04 09:16:00,37.3,19.4,29.98,ESE,102,0.0,6.0,48,0.00,,,0.00,Wunderground v.1.15,2013-11-04 16:16:00,
2013-11-04 09:18:00,37.5,20.1,29.99,East,98,4.0,6.0,49,0.00,,,0.00,Wunderground v.1.15,2013-11-04 16:18:00,
2013-11-04 09:20:00,37.5,19.6,29.99,East,97,0.0,1.0,48,0.00,,,0.00,Wunderground v.1.15,2013-11-04 16:20:00,
2013-11-04 09:21:00,37.5,19.6,29.99,East,97,2.0,3.0,48,0.00,,,0.00,Wunderground v.1.15,2013-11-04 16:21:00,
2013-11-04 09:22:00,37.5,19.6,29.99,East,97,0.0,3.0,48,0.00,,,0.00,Wunderground v.1.15,2013-11-04 16:22:00,
2013-11-04 09:23:00,37.5,20.1,29.99,East,98,2.0,4.0,49,0.00,,,0.00,Wunderground v.1.15,2013-11-04 16:23:00,
2013-11-04 09:25:00,37.5,19.6,29.99,East,98,1.0,4.0,48,0.00,,,0.00,Wunderground v.1.15,2013-11-04 16:25:00,
2013-11-04 09:26:00,37.5,19.1,29.99,East,98,0.0,4.0,47,0.00,,,0.00,Wunderground v.1.15,2013-11-04 16:26:00,
2013-11-04 09:27:00,37.5,19.1,29.99,East,98,3.0,4.0,47,0.00,,,0.00,Wunderground v.1.15,2013-11-04 16:27:00,
2013-11-04 09:28:00,37.5,19.6,29.99,East,87,4.0,5.0,48,0.00,,,0.00,Wunderground v.1.15,2013-11-04 16:28:00,
2013-11-04 09:29:00,37.6,19.7,29.99,East,87,0.0,5.0,48,0.00,,,0.00,Wunderground v.1.15,2013-11-04 16:29:00,
2013-11-04 09:30:00,37.6,19.7,29.99,East,85,0.0,5.0,48,0.00,,,0.00,Wunderground v.1.15,2013-11-04 16:30:00,
2013-11-04 09:31:00,37.6,19.2,29.99,East,85,3.0,5.0,47,0.00,,,0.00,Wunderground v.1.15,2013-11-04 16:31:00,
2013-11-04 09:32:00,37.6,19.2,29.99,ENE,73,4.0,7.0,47,0.00,,,0.00,Wunderground v.1.15,2013-11-04 16:32:00,
2013-11-04 09:34:00,37.8,19.3,29.98,ENE,74,0.0,7.0,47,0.00,,,0.00,Wunderground v.1.15,2013-11-04 16:34:00,
2013-11-04 09:36:00,37.8,18.8,29.98,ENE,74,2.0,7.0,46,0.00,,,0.00,Wunderground v.1.15,2013-11-04 16:36:00,
2013-11-04 09:37:00,37.8,18.8,29.98,ENE,75,0.0,7.0,46,0.00,,,0.00,Wunderground v.1.15,2013-11-04 16:37:00,
2013-11-04 09:39:00,37.9,19.4,29.98,ENE,75,0.0,7.0,47,0.00,,,0.00,Wunderground v.1.15,2013-11-04 16:39:00,
2013-11-04 09:41:00,38.0,19.0,29.98,ENE,70,5.0,5.0,46,0.00,,,0.00,Wunderground v.1.15,2013-11-04 16:41:00,
2013-11-04 09:42:00,38.0,19.0,29.98,ENE,75,3.0,7.0,46,0.00,,,0.00,Wunderground v.1.15,2013-11-04 16:42:00,
2013-11-04 09:43:00,38.0,19.0,29.98,ENE,78,2.0,7.0,46,0.00,,,0.00,Wunderground v.1.15,2013-11-04 16:43:00,
2013-11-04 09:44:00,38.0,19.0,29.98,ENE,77,0.0,7.0,46,0.00,,,0.00,Wunderground v.1.15,2013-11-04 16:44:00,
2013-11-04 09:47:00,38.2,19.2,29.98,ENE,78,4.0,7.0,46,0.00,,,0.00,Wunderground v.1.15,2013-11-04 16:47:00,
2013-11-04 09:48:00,38.2,19.2,29.98,ENE,78,1.0,7.0,46,0.00,,,0.00,Wunderground v.1.15,2013-11-04 16:48:00,
2013-11-04 09:49:00,38.2,19.2,29.98,ENE,78,1.0,7.0,46,0.00,,,0.00,Wunderground v.1.15,2013-11-04 16:49:00,
2013-11-04 09:52:00,38.3,19.3,29.98,ENE,78,0.0,4.0,46,0.00,,,0.00,Wunderground v.1.15,2013-11-04 16:52:00,
2013-11-04 09:53:00,38.3,19.3,29.98,ENE,78,1.0,4.0,46,0.00,,,0.00,Wunderground v.1.15,2013-11-04 16:53:00,
2013-11-04 09:54:00,38.5,19.0,29.98,ENE,78,0.0,4.0,45,0.00,,,0.00,Wunderground v.1.15,2013-11-04 16:54:00,
2013-11-04 09:58:00,38.8,19.2,29.98,East,97,0.0,4.0,45,0.00,,,0.00,Wunderground v.1.15,2013-11-04 16:58:00,
2013-11-04 10:00:00,38.8,18.7,29.98,ENE,75,1.0,1.0,44,0.00,,,0.00,Wunderground v.1.15,2013-11-04 17:00:00,
2013-11-04 10:03:00,39.1,19.0,29.97,ENE,75,0.0,2.0,44,0.00,,,0.00,Wunderground v.1.15,2013-11-04 17:03:00,
2013-11-04 10:04:00,39.1,19.0,29.97,ENE,75,0.0,2.0,44,0.00,,,0.00,Wunderground v.1.15,2013-11-04 17:04:00,
2013-11-04 10:05:00,39.2,18.5,29.97,ENE,75,0.0,2.0,43,0.00,,,0.00,Wunderground v.1.15,2013-11-04 17:05:00,
2013-11-04 10:06:00,39.2,18.5,29.97,ENE,75,0.0,2.0,43,0.00,,,0.00,Wunderground v.1.15,2013-11-04 17:06:00,
2013-11-04 10:08:00,39.2,18.0,29.97,East,80,1.0,2.0,42,0.00,,,0.00,Wunderground v.1.15,2013-11-04 17:08:00,
2013-11-04 10:09:00,39.2,18.0,29.97,East,80,0.0,2.0,42,0.00,,,0.00,Wunderground v.1.15,2013-11-04 17:09:00,
2013-11-04 10:10:00,39.2,18.0,29.97,East,80,0.0,1.0,42,0.00,,,0.00,Wunderground v.1.15,2013-11-04 17:10:00,
2013-11-04 10:11:00,39.3,17.0,29.97,East,80,0.0,1.0,40,0.00,,,0.00,Wunderground v.1.15,2013-11-04 17:11:00,
2013-11-04 10:14:00,39.6,18.4,29.97,East,80,0.0,1.0,42,0.00,,,0.00,Wunderground v.1.15,2013-11-04 17:14:00,
2013-11-04 10:16:00,39.9,18.1,29.97,East,80,0.0,1.0,41,0.00,,,0.00,Wunderground v.1.15,2013-11-04 17:16:00,
2013-11-04 10:17:00,40.1,18.3,29.97,East,80,0.0,1.0,41,0.00,,,0.00,Wunderground v.1.15,2013-11-04 17:17:00,
2013-11-04 10:19:00,40.2,17.8,29.97,East,80,0.0,1.0,40,0.00,,,0.00,Wunderground v.1.15,2013-11-04 17:19:00,
2013-11-04 10:21:00,40.2,18.3,29.97,East,84,0.0,0.0,41,0.00,,,0.00,Wunderground v.1.15,2013-11-04 17:21:00,
2013-11-04 10:23:00,40.1,17.1,29.97,ESE,105,0.0,4.0,39,0.00,,,0.00,Wunderground v.1.15,2013-11-04 17:23:00,
2013-11-04 10:24:00,40.1,17.7,29.97,ESE,105,0.0,4.0,40,0.00,,,0.00,Wunderground v.1.15,2013-11-04 17:24:00,
2013-11-04 10:25:00,40.1,18.3,29.97,ESE,105,0.0,4.0,41,0.00,,,0.00,Wunderground v.1.15,2013-11-04 17:25:00,
2013-11-04 10:27:00,40.1,17.7,29.97,ESE,105,1.0,4.0,40,0.00,,,0.00,Wunderground v.1.15,2013-11-04 17:27:00,
2013-11-04 10:28:00,40.2,17.2,29.97,ESE,105,0.0,4.0,39,0.00,,,0.00,Wunderground v.1.15,2013-11-04 17:28:00,
2013-11-04 10:30:00,40.2,17.2,29.97,ESE,106,0.0,1.0,39,0.00,,,0.00,Wunderground v.1.15,2013-11-04 17:30:00,
2013-11-04 10:31:00,40.3,17.3,29.97,ESE,106,0.0,1.0,39,0.00,,,0.00,Wunderground v.1.15,2013-11-04 17:31:00,
2013-11-04 10:32:00,40.5,18.0,29.97,ESE,106,0.0,2.0,40,0.00,,,0.00,Wunderground v.1.15,2013-11-04 17:32:00,
2013-11-04 10:34:00,40.5,18.6,29.96,ESE,106,0.0,2.0,41,0.00,,,0.00,Wunderground v.1.15,2013-11-04 17:34:00,
2013-11-04 10:35:00,40.6,18.7,29.96,ESE,106,0.0,2.0,41,0.00,,,0.00,Wunderground v.1.15,2013-11-04 17:35:00,
2013-11-04 10:36:00,40.6,18.1,29.96,ESE,106,0.0,2.0,40,0.00,,,0.00,Wunderground v.1.15,2013-11-04 17:36:00,
2013-11-04 10:37:00,40.6,18.7,29.96,ESE,106,0.0,2.0,41,0.00,,,0.00,Wunderground v.1.15,2013-11-04 17:37:00,
2013-11-04 10:39:00,40.6,18.1,29.96,ESE,106,0.0,2.0,40,0.00,,,0.00,Wunderground v.1.15,2013-11-04 17:39:00,
2013-11-04 10:40:00,40.6,18.1,29.96,ESE,106,0.0,0.0,40,0.00,,,0.00,Wunderground v.1.15,2013-11-04 17:40:00,
2013-11-04 10:42:00,40.5,18.6,29.96,ESE,106,0.0,0.0,41,0.00,,,0.00,Wunderground v.1.15,2013-11-04 17:42:00,
2013-11-04 10:44:00,40.5,18.6,29.96,ESE,106,0.0,0.0,41,0.00,,,0.00,Wunderground v.1.15,2013-11-04 17:44:00,
2013-11-04 10:45:00,40.5,18.0,29.96,ESE,106,0.0,0.0,40,0.00,,,0.00,Wunderground v.1.15,2013-11-04 17:45:00,
2013-11-04 10:46:00,40.6,18.1,29.96,ESE,106,0.0,0.0,40,0.00,,,0.00,Wunderground v.1.15,2013-11-04 17:46:00,
2013-11-04 10:47:00,40.6,18.7,29.96,ESE,106,0.0,0.0,41,0.00,,,0.00,Wunderground v.1.15,2013-11-04 17:47:00,
2013-11-04 10:48:00,40.6,18.1,29.96,ESE,106,0.0,0.0,40,0.00,,,0.00,Wunderground v.1.15,2013-11-04 17:48:00,
2013-11-04 10:49:00,40.8,18.3,29.96,ESE,106,0.0,0.0,40,0.00,,,0.00,Wunderground v.1.15,2013-11-04 17:49:00,
2013-11-04 10:51:00,41.1,18.6,29.96,ESE,105,2.0,3.0,40,0.00,,,0.00,Wunderground v.1.15,2013-11-04 17:51:00,
2013-11-04 10:52:00,41.1,18.6,29.96,East,99,1.0,4.0,40,0.00,,,0.00,Wunderground v.1.15,2013-11-04 17:52:00,
2013-11-04 10:53:00,41.1,18.0,29.96,East,99,0.0,4.0,39,0.00,,,0.00,Wunderground v.1.15,2013-11-04 17:53:00,
2013-11-04 10:54:00,41.1,19.2,29.96,East,99,0.0,4.0,41,0.00,,,0.00,Wunderground v.1.15,2013-11-04 17:54:00,
2013-11-04 10:56:00,41.2,18.7,29.96,East,99,0.0,4.0,40,0.00,,,0.00,Wunderground v.1.15,2013-11-04 17:56:00,
2013-11-04 10:57:00,41.3,19.3,29.96,East,98,0.0,4.0,41,0.00,,,0.00,Wunderground v.1.15,2013-11-04 17:57:00,
2013-11-04 10:58:00,41.5,19.5,29.96,East,98,0.0,4.0,41,0.00,,,0.00,Wunderground v.1.15,2013-11-04 17:58:00,
2013-11-04 10:59:00,41.6,20.2,29.96,East,98,1.0,4.0,42,0.00,,,0.00,Wunderground v.1.15,2013-11-04 17:59:00,
2013-11-04 11:01:00,42.1,20.1,29.96,NNW,348,3.0,5.0,41,0.00,,,0.00,Wunderground v.1.15,2013-11-04 18:01:00,
2013-11-04 11:02:00,42.2,20.2,29.96,NNW,345,3.0,5.0,41,0.00,,,0.00,Wunderground v.1.15,2013-11-04 18:02:00,
2013-11-04 11:03:00,42.3,18.5,29.94,NNW,345,0.0,5.0,38,0.00,,,0.00,Wunderground v.1.15,2013-11-04 18:03:00,
2013-11-04 11:04:00,42.5,18.6,29.94,NNW,345,0.0,5.0,38,0.00,,,0.00,Wunderground v.1.15,2013-11-04 18:04:00,
2013-11-04 11:06:00,42.8,20.1,29.94,NNW,338,5.0,5.0,40,0.00,,,0.00,Wunderground v.1.15,2013-11-04 18:06:00,
2013-11-04 11:08:00,42.9,19.6,29.94,NW,324,1.0,5.0,39,0.00,,,0.00,Wunderground v.1.15,2013-11-04 18:08:00,
2013-11-04 11:10:00,43.1,20.4,29.94,NW,325,1.0,2.0,40,0.00,,,0.00,Wunderground v.1.15,2013-11-04 18:10:00,
2013-11-04 11:11:00,43.1,19.8,29.94,NW,325,0.0,2.0,39,0.00,,,0.00,Wunderground v.1.15,2013-11-04 18:11:00,
2013-11-04 11:13:00,43.1,19.8,29.94,NNW,346,6.0,6.0,39,0.00,,,0.00,Wunderground v.1.15,2013-11-04 18:13:00,
2013-11-04 11:14:00,43.1,19.2,29.94,NNW,347,5.0,6.0,38,0.00,,,0.00,Wunderground v.1.15,2013-11-04 18:14:00,
2013-11-04 11:15:00,42.9,19.0,29.94,NNW,347,4.0,6.0,38,0.00,,,0.00,Wunderground v.1.15,2013-11-04 18:15:00,
2013-11-04 11:17:00,42.6,18.7,29.94,NNW,347,3.0,6.0,38,0.00,,,0.00,Wunderground v.1.15,2013-11-04 18:17:00,
2013-11-04 11:19:00,42.5,19.3,29.97,NNW,347,1.0,6.0,39,0.00,,,0.00,Wunderground v.1.15,2013-11-04 18:19:00,
2013-11-04 11:20:00,42.3,19.1,29.97,NNW,347,0.0,2.0,39,0.00,,,0.00,Wunderground v.1.15,2013-11-04 18:20:00,
2013-11-04 11:22:00,42.2,19.0,29.97,NNW,347,0.0,4.0,39,0.00,,,0.00,Wunderground v.1.15,2013-11-04 18:22:00,
2013-11-04 11:25:00,42.2,19.0,29.97,NNW,347,0.0,4.0,39,0.00,,,0.00,Wunderground v.1.15,2013-11-04 18:25:00,
2013-11-04 11:26:00,42.2,19.6,29.97,NNW,347,0.0,4.0,40,0.00,,,0.00,Wunderground v.1.15,2013-11-04 18:26:00,
2013-11-04 11:27:00,42.2,19.6,29.97,NNW,347,0.0,4.0,40,0.00,,,0.00,Wunderground v.1.15,2013-11-04 18:27:00,
2013-11-04 11:30:00,42.8,18.3,29.97,North,5,0.0,1.0,37,0.00,,,0.00,Wunderground v.1.15,2013-11-04 18:30:00,
2013-11-04 11:31:00,42.9,18.4,29.97,North,5,1.0,1.0,37,0.00,,,0.00,Wunderground v.1.15,2013-11-04 18:31:00,
2013-11-04 11:34:00,43.1,19.2,29.95,NNE,12,0.0,2.0,38,0.00,,,0.00,Wunderground v.1.15,2013-11-04 18:34:00,
2013-11-04 11:36:00,43.2,19.9,29.95,NNE,30,4.0,4.0,39,0.00,,,0.00,Wunderground v.1.15,2013-11-04 18:36:00,
2013-11-04 11:37:00,43.3,20.0,29.95,East,80,3.0,4.0,39,0.00,,,0.00,Wunderground v.1.15,2013-11-04 18:37:00,
2013-11-04 11:41:00,43.5,19.5,29.95,East,100,0.0,1.0,38,0.00,,,0.00,Wunderground v.1.15,2013-11-04 18:41:00,
2013-11-04 11:42:00,43.5,18.9,29.95,East,99,0.0,1.0,37,0.00,,,0.00,Wunderground v.1.15,2013-11-04 18:42:00,
2013-11-04 11:46:00,43.6,19.0,29.95,East,101,1.0,3.0,37,0.00,,,0.00,Wunderground v.1.15,2013-11-04 18:46:00,
2013-11-04 11:47:00,43.8,19.2,29.95,East,101,0.0,3.0,37,0.00,,,0.00,Wunderground v.1.15,2013-11-04 18:47:00,
2013-11-04 11:48:00,43.8,19.2,29.95,East,101,0.0,3.0,37,0.00,,,0.00,Wunderground v.1.15,2013-11-04 18:48:00,
2013-11-04 11:51:00,43.8,19.8,29.94,East,80,4.0,5.0,38,0.00,,,0.00,Wunderground v.1.15,2013-11-04 18:51:00,
2013-11-04 11:52:00,43.6,18.4,29.94,East,80,0.0,5.0,36,0.00,,,0.00,Wunderground v.1.15,2013-11-04 18:52:00,
2013-11-04 11:53:00,43.5,19.5,29.94,East,80,0.0,5.0,38,0.00,,,0.00,Wunderground v.1.15,2013-11-04 18:53:00,
2013-11-04 11:55:00,43.2,18.6,29.94,East,79,0.0,5.0,37,0.00,,,0.00,Wunderground v.1.15,2013-11-04 18:55:00,
2013-11-04 11:57:00,43.2,18.6,29.94,East,79,0.0,5.0,37,0.00,,,0.00,Wunderground v.1.15,2013-11-04 18:57:00,
2013-11-04 11:58:00,43.2,19.3,29.94,East,79,0.0,5.0,38,0.00,,,0.00,Wunderground v.1.15,2013-11-04 18:58:00,
2013-11-04 12:00:00,43.3,18.7,29.94,East,79,2.0,3.0,37,0.00,,,0.00,Wunderground v.1.15,2013-11-04 19:00:00,
2013-11-04 12:02:00,43.3,18.7,29.94,East,79,0.0,3.0,37,0.00,,,0.00,Wunderground v.1.15,2013-11-04 19:02:00,
2013-11-04 12:03:00,43.3,18.7,29.94,East,79,3.0,3.0,37,0.00,,,0.00,Wunderground v.1.15,2013-11-04 19:03:00,
2013-11-04 12:06:00,43.3,19.4,29.94,East,79,0.0,3.0,38,0.00,,,0.00,Wunderground v.1.15,2013-11-04 19:06:00,
2013-11-04 12:07:00,43.3,19.4,29.94,East,79,0.0,3.0,38,0.00,,,0.00,Wunderground v.1.15,2013-11-04 19:07:00,
2013-11-04 12:08:00,43.5,19.5,29.94,East,79,0.0,3.0,38,0.00,,,0.00,Wunderground v.1.15,2013-11-04 19:08:00,
2013-11-04 12:09:00,43.5,19.5,29.94,East,79,0.0,3.0,38,0.00,,,0.00,Wunderground v.1.15,2013-11-04 19:09:00,
2013-11-04 12:11:00,43.3,18.7,29.94,East,79,0.0,1.0,37,0.00,,,0.00,Wunderground v.1.15,2013-11-04 19:11:00,
2013-11-04 12:12:00,43.3,18.7,29.94,East,79,0.0,1.0,37,0.00,,,0.00,Wunderground v.1.15,2013-11-04 19:12:00,
2013-11-04 12:13:00,43.3,18.7,29.94,East,79,0.0,1.0,37,0.00,,,0.00,Wunderground v.1.15,2013-11-04 19:13:00,
2013-11-04 12:14:00,43.3,18.7,29.94,East,79,0.0,1.0,37,0.00,,,0.00,Wunderground v.1.15,2013-11-04 19:14:00,
2013-11-04 12:16:00,43.3,19.4,29.94,East,83,2.0,3.0,38,0.00,,,0.00,Wunderground v.1.15,2013-11-04 19:16:00,
2013-11-04 12:17:00,43.5,19.5,29.94,East,92,0.0,4.0,38,0.00,,,0.00,Wunderground v.1.15,2013-11-04 19:17:00,
2013-11-04 12:18:00,43.5,19.5,29.94,East,92,0.0,4.0,38,0.00,,,0.00,Wunderground v.1.15,2013-11-04 19:18:00,
2013-11-04 12:19:00,43.6,19.6,29.94,East,92,0.0,4.0,38,0.00,,,0.00,Wunderground v.1.15,2013-11-04 19:19:00,
2013-11-04 12:22:00,43.9,18.6,29.94,East,92,0.0,0.0,36,0.00,,,0.00,Wunderground v.1.15,2013-11-04 19:22:00,
2013-11-04 12:23:00,44.1,20.1,29.94,East,92,0.0,2.0,38,0.00,,,0.00,Wunderground v.1.15,2013-11-04 19:23:00,
2013-11-04 12:25:00,43.9,19.3,29.94,East,92,0.0,2.0,37,0.00,,,0.00,Wunderground v.1.15,2013-11-04 19:25:00,
2013-11-04 12:27:00,43.9,18.6,29.94,East,92,0.0,2.0,36,0.00,,,0.00,Wunderground v.1.15,2013-11-04 19:27:00,
2013-11-04 12:28:00,43.9,19.9,29.94,East,92,0.0,2.0,38,0.00,,,0.00,Wunderground v.1.15,2013-11-04 19:28:00,
2013-11-04 12:29:00,43.9,19.9,29.94,East,92,0.0,2.0,38,0.00,,,0.00,Wunderground v.1.15,2013-11-04 19:29:00,
2013-11-04 12:30:00,43.9,19.9,29.94,East,92,0.0,0.0,38,0.00,,,0.00,Wunderground v.1.15,2013-11-04 19:30:00,
2013-11-04 12:33:00,43.9,19.3,29.94,ESE,110,0.0,1.0,37,0.00,,,0.00,Wunderground v.1.15,2013-11-04 19:33:00,
2013-11-04 12:34:00,43.9,19.3,29.93,ESE,110,0.0,1.0,37,0.00,,,0.00,Wunderground v.1.15,2013-11-04 19:34:00,
2013-11-04 12:35:00,43.9,19.3,29.93,ESE,110,0.0,1.0,37,0.00,,,0.00,Wunderground v.1.15,2013-11-04 19:35:00,
2013-11-04 12:38:00,44.1,20.1,29.93,ESE,109,0.0,1.0,38,0.00,,,0.00,Wunderground v.1.15,2013-11-04 19:38:00,
2013-11-04 12:39:00,44.1,19.5,29.93,ESE,110,0.0,1.0,37,0.00,,,0.00,Wunderground v.1.15,2013-11-04 19:39:00,
2013-11-04 12:40:00,44.1,19.5,29.93,ESE,110,0.0,0.0,37,0.00,,,0.00,Wunderground v.1.15,2013-11-04 19:40:00,
2013-11-04 12:43:00,44.3,19.6,29.93,East,89,0.0,4.0,37,0.00,,,0.00,Wunderground v.1.15,2013-11-04 19:43:00,
2013-11-04 12:45:00,44.3,19.6,29.93,East,83,0.0,4.0,37,0.00,,,0.00,Wunderground v.1.15,2013-11-04 19:45:00,
2013-11-04 12:48:00,44.2,19.5,29.93,East,83,0.0,4.0,37,0.00,,,0.00,Wunderground v.1.15,2013-11-04 19:48:00,
2013-11-04 12:49:00,44.2,19.5,29.93,East,83,0.0,4.0,37,0.00,,,0.00,Wunderground v.1.15,2013-11-04 19:49:00,
2013-11-04 12:50:00,44.2,19.5,29.93,East,83,0.0,0.0,37,0.00,,,0.00,Wunderground v.1.15,2013-11-04 19:50:00,
2013-11-04 12:51:00,44.1,19.5,29.93,East,83,0.0,0.0,37,0.00,,,0.00,Wunderground v.1.15,2013-11-04 19:51:00,
2013-11-04 12:54:00,43.9,19.9,29.93,East,83,0.0,0.0,38,0.00,,,0.00,Wunderground v.1.15,2013-11-04 19:54:00,
2013-11-04 12:55:00,43.9,19.3,29.93,East,83,0.0,0.0,37,0.00,,,0.00,Wunderground v.1.15,2013-11-04 19:55:00,
2013-11-04 12:56:00,43.9,19.3,29.93,East,83,0.0,0.0,37,0.00,,,0.00,Wunderground v.1.15,2013-11-04 19:56:00,
2013-11-04 13:00:00,44.1,20.1,29.93,East,83,0.0,0.0,38,0.00,,,0.00,Wunderground v.1.15,2013-11-04 20:00:00,
2013-11-04 13:01:00,44.2,20.8,29.93,East,82,1.0,1.0,39,0.00,,,0.00,Wunderground v.1.15,2013-11-04 20:01:00,
2013-11-04 13:02:00,44.3,20.3,29.93,North,11,5.0,6.0,38,0.00,,,0.00,Wunderground v.1.15,2013-11-04 20:02:00,
2013-11-04 13:05:00,44.5,20.4,29.91,NW,325,0.0,6.0,38,0.00,,,0.00,Wunderground v.1.15,2013-11-04 20:05:00,
2013-11-04 13:06:00,44.6,19.9,29.91,NW,325,0.0,6.0,37,0.00,,,0.00,Wunderground v.1.15,2013-11-04 20:06:00,
2013-11-04 13:07:00,44.6,20.5,29.91,NW,313,2.0,6.0,38,0.00,,,0.00,Wunderground v.1.15,2013-11-04 20:07:00,
2013-11-04 13:08:00,44.6,19.9,29.91,NW,315,5.0,6.0,37,0.00,,,0.00,Wunderground v.1.15,2013-11-04 20:08:00,
2013-11-04 13:10:00,44.6,19.9,29.91,NW,315,5.0,5.0,37,0.00,,,0.00,Wunderground v.1.15,2013-11-04 20:10:00,
2013-11-04 13:11:00,44.5,19.8,29.91,NW,315,3.0,5.0,37,0.00,,,0.00,Wunderground v.1.15,2013-11-04 20:11:00,
2013-11-04 13:13:00,44.3,19.6,29.91,NW,316,3.0,5.0,37,0.00,,,0.00,Wunderground v.1.15,2013-11-04 20:13:00,
2013-11-04 13:14:00,44.2,20.2,29.91,NW,316,3.0,5.0,38,0.00,,,0.00,Wunderground v.1.15,2013-11-04 20:14:00,
2013-11-04 13:15:00,44.2,20.2,29.91,NW,315,6.0,6.0,38,0.00,,,0.00,Wunderground v.1.15,2013-11-04 20:15:00,
2013-11-04 13:16:00,44.1,20.7,29.91,NW,316,4.0,7.0,39,0.00,,,0.00,Wunderground v.1.15,2013-11-04 20:16:00,
2013-11-04 13:17:00,44.1,20.1,29.91,NW,316,3.0,7.0,38,0.00,,,0.00,Wunderground v.1.15,2013-11-04 20:17:00,
2013-11-04 13:18:00,44.1,20.1,29.91,NW,316,1.0,7.0,38,0.00,,,0.00,Wunderground v.1.15,2013-11-04 20:18:00,
2013-11-04 13:19:00,44.1,18.8,29.92,NW,316,1.0,7.0,36,0.00,,,0.00,Wunderground v.1.15,2013-11-04 20:19:00,
2013-11-04 13:20:00,44.1,20.7,29.92,NW,315,2.0,4.0,39,0.00,,,0.00,Wunderground v.1.15,2013-11-04 20:20:00,
2013-11-04 13:21:00,44.2,20.2,29.92,NW,314,5.0,6.0,38,0.00,,,0.00,Wunderground v.1.15,2013-11-04 20:21:00,
2013-11-04 13:23:00,44.2,20.2,29.92,NW,312,3.0,8.0,38,0.00,,,0.00,Wunderground v.1.15,2013-11-04 20:23:00,
2013-11-04 13:24:00,44.3,19.6,29.92,NW,312,2.0,8.0,37,0.00,,,0.00,Wunderground v.1.15,2013-11-04 20:24:00,
2013-11-04 13:25:00,44.3,20.3,29.92,NW,312,5.0,8.0,38,0.00,,,0.00,Wunderground v.1.15,2013-11-04 20:25:00,
2013-11-04 13:26:00,44.3,20.3,29.92,NW,312,7.0,8.0,38,0.00,,,0.00,Wunderground v.1.15,2013-11-04 20:26:00,
2013-11-04 13:27:00,44.3,19.6,29.92,NW,312,3.0,8.0,37,0.00,,,0.00,Wunderground v.1.15,2013-11-04 20:27:00,
2013-11-04 13:28:00,44.5,20.4,29.92,NW,312,3.0,8.0,38,0.00,,,0.00,Wunderground v.1.15,2013-11-04 20:28:00,
2013-11-04 13:29:00,44.5,20.4,29.92,NW,312,3.0,8.0,38,0.00,,,0.00,Wunderground v.1.15,2013-11-04 20:29:00,
2013-11-04 13:30:00,44.5,20.4,29.92,NW,312,0.0,3.0,38,0.00,,,0.00,Wunderground v.1.15,2013-11-04 20:30:00,
2013-11-04 13:32:00,44.5,21.0,29.92,NW,313,4.0,4.0,39,0.00,,,0.00,Wunderground v.1.15,2013-11-04 20:32:00,
2013-11-04 13:34:00,44.5,20.4,29.91,NW,314,6.0,8.0,38,0.00,,,0.00,Wunderground v.1.15,2013-11-04 20:34:00,
2013-11-04 13:35:00,44.6,21.1,29.91,NW,311,5.0,8.0,39,0.00,,,0.00,Wunderground v.1.15,2013-11-04 20:35:00,
2013-11-04 13:36:00,44.6,20.5,29.91,NW,311,4.0,8.0,38,0.00,,,0.00,Wunderground v.1.15,2013-11-04 20:36:00,
2013-11-04 13:37:00,44.6,21.1,29.91,NW,304,5.0,8.0,39,0.00,,,0.00,Wunderground v.1.15,2013-11-04 20:37:00,
2013-11-04 13:39:00,44.5,20.4,29.91,WNW,301,3.0,8.0,38,0.00,,,0.00,Wunderground v.1.15,2013-11-04 20:39:00,
2013-11-04 13:41:00,44.3,20.3,29.91,WNW,301,4.0,6.0,38,0.00,,,0.00,Wunderground v.1.15,2013-11-04 20:41:00,
2013-11-04 13:42:00,44.3,20.9,29.91,WNW,301,3.0,6.0,39,0.00,,,0.00,Wunderground v.1.15,2013-11-04 20:42:00,
2013-11-04 13:45:00,44.3,20.9,29.91,WNW,301,1.0,7.0,39,0.00,,,0.00,Wunderground v.1.15,2013-11-04 20:45:00,
2013-11-04 13:46:00,44.3,20.3,29.91,WNW,301,5.0,7.0,38,0.00,,,0.00,Wunderground v.1.15,2013-11-04 20:46:00,
2013-11-04 13:47:00,44.3,20.3,29.91,WNW,301,2.0,7.0,38,0.00,,,0.00,Wunderground v.1.15,2013-11-04 20:47:00,
2013-11-04 13:50:00,44.2,21.4,29.92,WNW,303,5.0,7.0,40,0.00,,,0.00,Wunderground v.1.15,2013-11-04 20:50:00,
2013-11-04 13:51:00,44.2,20.8,29.92,NW,304,4.0,7.0,39,0.00,,,0.00,Wunderground v.1.15,2013-11-04 20:51:00,
2013-11-04 13:52:00,44.2,20.8,29.92,NW,305,4.0,7.0,39,0.00,,,0.00,Wunderground v.1.15,2013-11-04 20:52:00,
2013-11-04 13:53:00,44.2,20.8,29.92,NW,304,5.0,7.0,39,0.00,,,0.00,Wunderground v.1.15,2013-11-04 20:53:00,
2013-11-04 13:54:00,44.2,20.8,29.92,NW,304,4.0,7.0,39,0.00,,,0.00,Wunderground v.1.15,2013-11-04 20:54:00,
2013-11-04 13:56:00,44.1,20.7,29.92,NW,304,1.0,7.0,39,0.00,,,0.00,Wunderground v.1.15,2013-11-04 20:56:00,
2013-11-04 13:57:00,44.2,21.4,29.92,NW,304,4.0,7.0,40,0.00,,,0.00,Wunderground v.1.15,2013-11-04 20:57:00,
2013-11-04 13:58:00,44.2,20.8,29.92,NW,304,4.0,7.0,39,0.00,,,0.00,Wunderground v.1.15,2013-11-04 20:58:00,
2013-11-04 13:59:00,44.2,20.8,29.92,NW,304,4.0,7.0,39,0.00,,,0.00,Wunderground v.1.15,2013-11-04 20:59:00,
2013-11-04 14:01:00,44.2,20.2,29.92,NW,305,2.0,7.0,38,0.00,,,0.00,Wunderground v.1.15,2013-11-04 21:01:00,
2013-11-04 14:02:00,44.2,20.8,29.92,NW,305,1.0,7.0,39,0.00,,,0.00,Wunderground v.1.15,2013-11-04 21:02:00,
2013-11-04 14:04:00,44.2,20.8,29.92,NW,305,2.0,7.0,39,0.00,,,0.00,Wunderground v.1.15,2013-11-04 21:04:00,
2013-11-04 14:05:00,44.2,20.2,29.92,NW,305,2.0,7.0,38,0.00,,,0.00,Wunderground v.1.15,2013-11-04 21:05:00,
2013-11-04 14:06:00,44.1,20.1,29.92,NW,305,2.0,7.0,38,0.00,,,0.00,Wunderground v.1.15,2013-11-04 21:06:00,
2013-11-04 14:07:00,44.1,20.1,29.92,NW,305,3.0,7.0,38,0.00,,,0.00,Wunderground v.1.15,2013-11-04 21:07:00,
2013-11-04 14:08:00,44.1,20.1,29.92,NNW,333,2.0,9.0,38,0.00,,,0.00,Wunderground v.1.15,2013-11-04 21:08:00,
2013-11-04 14:09:00,44.1,19.5,29.92,NNW,341,6.0,9.0,37,0.00,,,0.00,Wunderground v.1.15,2013-11-04 21:09:00,
2013-11-04 14:10:00,44.1,19.5,29.92,NNW,332,5.0,9.0,37,0.00,,,0.00,Wunderground v.1.15,2013-11-04 21:10:00,
2013-11-04 14:11:00,44.1,20.1,29.92,NNW,332,3.0,9.0,38,0.00,,,0.00,Wunderground v.1.15,2013-11-04 21:11:00,
2013-11-04 14:12:00,44.1,20.1,29.92,NNW,332,3.0,9.0,38,0.00,,,0.00,Wunderground v.1.15,2013-11-04 21:12:00,
2013-11-04 14:13:00,44.1,20.1,29.92,NNW,332,4.0,9.0,38,0.00,,,0.00,Wunderground v.1.15,2013-11-04 21:13:00,
2013-11-04 14:15:00,44.1,20.1,29.92,NW,321,5.0,9.0,38,0.00,,,0.00,Wunderground v.1.15,2013-11-04 21:15:00,
2013-11-04 14:17:00,44.1,20.1,29.92,NW,321,2.0,9.0,38,0.00,,,0.00,Wunderground v.1.15,2013-11-04 21:17:00,
2013-11-04 14:18:00,44.1,20.1,29.89,NNW,336,4.0,9.0,38,0.00,,,0.00,Wunderground v.1.15,2013-11-04 21:18:00,
2013-11-04 14:20:00,44.1,19.5,29.89,NNW,329,3.0,8.0,37,0.00,,,0.00,Wunderground v.1.15,2013-11-04 21:20:00,
2013-11-04 14:22:00,43.9,19.9,29.89,NNW,328,2.0,8.0,38,0.00,,,0.00,Wunderground v.1.15,2013-11-04 21:22:00,
2013-11-04 14:23:00,43.9,19.9,29.89,NNW,328,0.0,8.0,38,0.00,,,0.00,Wunderground v.1.15,2013-11-04 21:23:00,
2013-11-04 14:24:00,43.9,21.1,29.89,NNW,328,2.0,8.0,40,0.00,,,0.00,Wunderground v.1.15,2013-11-04 21:24:00,
2013-11-04 14:25:00,43.9,20.5,29.89,NW,326,5.0,8.0,39,0.00,,,0.00,Wunderground v.1.15,2013-11-04 21:25:00,
2013-11-04 14:27:00,44.1,20.1,29.89,NW,323,3.0,8.0,38,0.00,,,0.00,Wunderground v.1.15,2013-11-04 21:27:00,
2013-11-04 14:29:00,43.9,19.3,29.89,NNW,330,3.0,8.0,37,0.00,,,0.00,Wunderground v.1.15,2013-11-04 21:29:00,
2013-11-04 14:30:00,43.9,19.3,29.89,NNW,330,0.0,3.0,37,0.00,,,0.00,Wunderground v.1.15,2013-11-04 21:30:00,
2013-11-04 14:31:00,43.9,19.9,29.89,NNW,329,3.0,6.0,38,0.00,,,0.00,Wunderground v.1.15,2013-11-04 21:31:00,
2013-11-04 14:33:00,43.9,19.3,29.89,NNW,329,2.0,6.0,37,0.00,,,0.00,Wunderground v.1.15,2013-11-04 21:33:00,
2013-11-04 14:35:00,43.9,19.9,29.89,NNW,332,3.0,9.0,38,0.00,,,0.00,Wunderground v.1.15,2013-11-04 21:35:00,
2013-11-04 14:38:00,43.8,19.8,29.89,NNW,333,3.0,9.0,38,0.00,,,0.00,Wunderground v.1.15,2013-11-04 21:38:00,
2013-11-04 14:40:00,43.9,20.5,29.89,NW,319,2.0,3.0,39,0.00,,,0.00,Wunderground v.1.15,2013-11-04 21:40:00,
2013-11-04 14:43:00,43.9,21.1,29.89,NW,317,6.0,6.0,40,0.00,,,0.00,Wunderground v.1.15,2013-11-04 21:43:00,
2013-11-04 14:44:00,43.9,20.5,29.89,NW,318,3.0,6.0,39,0.00,,,0.00,Wunderground v.1.15,2013-11-04 21:44:00,
2013-11-04 14:45:00,43.9,20.5,29.89,NW,321,6.0,6.0,39,0.00,,,0.00,Wunderground v.1.15,2013-11-04 21:45:00,
2013-11-04 14:46:00,43.9,20.5,29.89,NW,326,5.0,7.0,39,0.00,,,0.00,Wunderground v.1.15,2013-11-04 21:46:00,
2013-11-04 14:48:00,43.9,21.1,29.88,NW,326,0.0,7.0,40,0.00,,,0.00,Wunderground v.1.15,2013-11-04 21:48:00,
2013-11-04 14:49:00,43.9,21.7,29.88,NW,326,3.0,7.0,41,0.00,,,0.00,Wunderground v.1.15,2013-11-04 21:49:00,
2013-11-04 14:50:00,43.9,21.7,29.88,NW,326,3.0,3.0,41,0.00,,,0.00,Wunderground v.1.15,2013-11-04 21:50:00,
2013-11-04 14:51:00,43.9,20.5,29.88,NW,326,2.0,3.0,39,0.00,,,0.00,Wunderground v.1.15,2013-11-04 21:51:00,
2013-11-04 14:53:00,44.1,21.9,29.88,NW,326,2.0,5.0,41,0.00,,,0.00,Wunderground v.1.15,2013-11-04 21:53:00,
2013-11-04 14:54:00,44.1,21.3,29.88,NW,325,3.0,5.0,40,0.00,,,0.00,Wunderground v.1.15,2013-11-04 21:54:00,
2013-11-04 14:55:00,44.1,20.1,29.88,NW,325,4.0,5.0,38,0.00,,,0.00,Wunderground v.1.15,2013-11-04 21:55:00,
2013-11-04 14:56:00,44.1,20.1,29.88,NW,325,3.0,5.0,38,0.00,,,0.00,Wunderground v.1.15,2013-11-04 21:56:00,
2013-11-04 14:59:00,44.1,20.1,29.88,NW,325,2.0,5.0,38,0.00,,,0.00,Wunderground v.1.15,2013-11-04 21:59:00,
2013-11-04 15:00:00,44.1,20.1,29.88,NW,325,4.0,5.0,38,0.00,,,0.00,Wunderground v.1.15,2013-11-04 22:00:00,
2013-11-04 15:01:00,44.1,19.5,29.88,NW,326,3.0,5.0,37,0.00,,,0.00,Wunderground v.1.15,2013-11-04 22:01:00,
2013-11-04 15:03:00,43.9,19.9,29.88,NW,326,3.0,6.0,38,0.00,,,0.00,Wunderground v.1.15,2013-11-04 22:03:00,
2013-11-04 15:04:00,43.9,19.9,29.88,NW,326,4.0,6.0,38,0.00,,,0.00,Wunderground v.1.15,2013-11-04 22:04:00,
2013-11-04 15:05:00,43.9,19.3,29.88,NW,326,1.0,6.0,37,0.00,,,0.00,Wunderground v.1.15,2013-11-04 22:05:00,
2013-11-04 15:06:00,43.9,19.9,29.88,NW,326,5.0,6.0,38,0.00,,,0.00,Wunderground v.1.15,2013-11-04 22:06:00,
2013-11-04 15:08:00,43.8,19.8,29.88,NW,326,0.0,6.0,38,0.00,,,0.00,Wunderground v.1.15,2013-11-04 22:08:00,
2013-11-04 15:09:00,43.8,21.0,29.88,NW,325,2.0,6.0,40,0.00,,,0.00,Wunderground v.1.15,2013-11-04 22:09:00,
2013-11-04 15:10:00,43.9,20.5,29.88,NW,325,1.0,3.0,39,0.00,,,0.00,Wunderground v.1.15,2013-11-04 22:10:00,
2013-11-04 15:11:00,43.9,20.5,29.88,NW,325,0.0,3.0,39,0.00,,,0.00,Wunderground v.1.15,2013-11-04 22:11:00,
2013-11-04 15:14:00,43.9,19.3,29.88,NW,325,3.0,6.0,37,0.00,,,0.00,Wunderground v.1.15,2013-11-04 22:14:00,
2013-11-04 15:15:00,43.9,19.3,29.88,NW,325,0.0,6.0,37,0.00,,,0.00,Wunderground v.1.15,2013-11-04 22:15:00,
2013-11-04 15:16:00,43.9,18.6,29.88,NW,325,2.0,6.0,36,0.00,,,0.00,Wunderground v.1.15,2013-11-04 22:16:00,
2013-11-04 15:17:00,43.9,18.6,29.88,NW,325,4.0,6.0,36,0.00,,,0.00,Wunderground v.1.15,2013-11-04 22:17:00,
2013-11-04 15:19:00,43.9,18.6,29.90,NW,325,0.0,6.0,36,0.00,,,0.00,Wunderground v.1.15,2013-11-04 22:19:00,
2013-11-04 15:20:00,43.9,18.6,29.90,NW,325,4.0,4.0,36,0.00,,,0.00,Wunderground v.1.15,2013-11-04 22:20:00,
2013-11-04 15:21:00,43.8,18.5,29.90,NW,325,5.0,5.0,36,0.00,,,0.00,Wunderground v.1.15,2013-11-04 22:21:00,
2013-11-04 15:22:00,43.8,18.5,29.90,NW,325,2.0,5.0,36,0.00,,,0.00,Wunderground v.1.15,2013-11-04 22:22:00,
2013-11-04 15:25:00,43.9,18.6,29.90,NW,325,1.0,5.0,36,0.00,,,0.00,Wunderground v.1.15,2013-11-04 22:25:00,
2013-11-04 15:26:00,43.9,18.6,29.90,NW,325,2.0,6.0,36,0.00,,,0.00,Wunderground v.1.15,2013-11-04 22:26:00,
2013-11-04 15:27:00,43.9,18.0,29.90,NW,325,5.0,6.0,35,0.00,,,0.00,Wunderground v.1.15,2013-11-04 22:27:00,
2013-11-04 15:30:00,43.9,18.6,29.90,NW,325,0.0,2.0,36,0.00,,,0.00,Wunderground v.1.15,2013-11-04 22:30:00,
2013-11-04 15:31:00,43.8,19.2,29.90,NW,325,2.0,3.0,37,0.00,,,0.00,Wunderground v.1.15,2013-11-04 22:31:00,
2013-11-04 15:32:00,43.8,18.5,29.90,NW,325,2.0,4.0,36,0.00,,,0.00,Wunderground v.1.15,2013-11-04 22:32:00,
2013-11-04 15:33:00,43.8,18.5,29.90,NW,325,3.0,4.0,36,0.00,,,0.00,Wunderground v.1.15,2013-11-04 22:33:00,
2013-11-04 15:35:00,43.8,19.2,29.90,NW,325,3.0,5.0,37,0.00,,,0.00,Wunderground v.1.15,2013-11-04 22:35:00,
2013-11-04 15:36:00,43.8,19.2,29.90,NW,325,1.0,5.0,37,0.00,,,0.00,Wunderground v.1.15,2013-11-04 22:36:00,
2013-11-04 15:37:00,43.8,19.2,29.90,NW,325,1.0,5.0,37,0.00,,,0.00,Wunderground v.1.15,2013-11-04 22:37:00,
2013-11-04 15:38:00,43.8,18.5,29.90,NW,325,1.0,5.0,36,0.00,,,0.00,Wunderground v.1.15,2013-11-04 22:38:00,
2013-11-04 15:39:00,43.8,19.2,29.90,NW,325,1.0,5.0,37,0.00,,,0.00,Wunderground v.1.15,2013-11-04 22:39:00,
2013-11-04 15:41:00,43.8,18.5,29.90,NW,325,4.0,4.0,36,0.00,,,0.00,Wunderground v.1.15,2013-11-04 22:41:00,
2013-11-04 15:42:00,43.8,19.2,29.90,NW,325,2.0,4.0,37,0.00,,,0.00,Wunderground v.1.15,2013-11-04 22:42:00,
2013-11-04 15:43:00,43.8,19.8,29.90,NW,325,2.0,4.0,38,0.00,,,0.00,Wunderground v.1.15,2013-11-04 22:43:00,
2013-11-04 15:45:00,43.8,18.5,29.90,NW,325,0.0,6.0,36,0.00,,,0.00,Wunderground v.1.15,2013-11-04 22:45:00,
2013-11-04 15:46:00,43.8,18.5,29.90,NW,325,4.0,6.0,36,0.00,,,0.00,Wunderground v.1.15,2013-11-04 22:46:00,
2013-11-04 15:47:00,43.8,18.5,29.90,NW,325,2.0,6.0,36,0.00,,,0.00,Wunderground v.1.15,2013-11-04 22:47:00,
2013-11-04 15:49:00,43.8,19.2,29.91,NW,325,1.0,6.0,37,0.00,,,0.00,Wunderground v.1.15,2013-11-04 22:49:00,
2013-11-04 15:51:00,43.8,19.2,29.91,NW,325,0.0,2.0,37,0.00,,,0.00,Wunderground v.1.15,2013-11-04 22:51:00,
2013-11-04 15:52:00,43.8,19.8,29.91,NW,325,3.0,4.0,38,0.00,,,0.00,Wunderground v.1.15,2013-11-04 22:52:00,
2013-11-04 15:53:00,43.8,19.2,29.91,NW,325,0.0,4.0,37,0.00,,,0.00,Wunderground v.1.15,2013-11-04 22:53:00,
2013-11-04 15:54:00,43.8,19.8,29.91,NW,325,0.0,4.0,38,0.00,,,0.00,Wunderground v.1.15,2013-11-04 22:54:00,
2013-11-04 15:56:00,43.6,19.6,29.91,NW,325,0.0,4.0,38,0.00,,,0.00,Wunderground v.1.15,2013-11-04 22:56:00,
2013-11-04 15:58:00,43.6,20.2,29.91,NW,325,0.0,4.0,39,0.00,,,0.00,Wunderground v.1.15,2013-11-04 22:58:00,
2013-11-04 15:59:00,43.6,19.6,29.91,NW,325,0.0,4.0,38,0.00,,,0.00,Wunderground v.1.15,2013-11-04 22:59:00,
2013-11-04 16:01:00,43.6,19.6,29.91,NW,325,0.0,4.0,38,0.00,,,0.00,Wunderground v.1.15,2013-11-04 23:01:00,
2013-11-04 16:02:00,43.6,19.0,29.91,NW,325,0.0,4.0,37,0.00,,,0.00,Wunderground v.1.15,2013-11-04 23:02:00,
2013-11-04 16:03:00,43.6,19.6,29.91,NW,325,0.0,4.0,38,0.00,,,0.00,Wunderground v.1.15,2013-11-04 23:03:00,
2013-11-04 16:04:00,43.6,19.6,29.91,NW,325,0.0,4.0,38,0.00,,,0.00,Wunderground v.1.15,2013-11-04 23:04:00,
2013-11-04 16:06:00,43.6,19.6,29.91,NW,325,0.0,4.0,38,0.00,,,0.00,Wunderground v.1.15,2013-11-04 23:06:00,
2013-11-04 16:08:00,43.6,19.6,29.91,NW,325,0.0,4.0,38,0.00,,,0.00,Wunderground v.1.15,2013-11-04 23:08:00,
2013-11-04 16:09:00,43.6,19.6,29.91,NW,325,0.0,4.0,38,0.00,,,0.00,Wunderground v.1.15,2013-11-04 23:09:00,
2013-11-04 16:10:00,43.6,20.2,29.91,NW,325,0.0,0.0,39,0.00,,,0.00,Wunderground v.1.15,2013-11-04 23:10:00,
2013-11-04 16:11:00,43.6,19.6,29.91,NW,325,0.0,0.0,38,0.00,,,0.00,Wunderground v.1.15,2013-11-04 23:11:00,
2013-11-04 16:13:00,43.6,20.2,29.91,NW,325,0.0,0.0,39,0.00,,,0.00,Wunderground v.1.15,2013-11-04 23:13:00,
2013-11-04 16:14:00,43.6,20.2,29.91,NW,325,0.0,1.0,39,0.00,,,0.00,Wunderground v.1.15,2013-11-04 23:14:00,
2013-11-04 16:15:00,43.6,19.6,29.91,NW,325,0.0,1.0,38,0.00,,,0.00,Wunderground v.1.15,2013-11-04 23:15:00,
2013-11-04 16:16:00,43.6,19.6,29.91,NW,325,0.0,1.0,38,0.00,,,0.00,Wunderground v.1.15,2013-11-04 23:16:00,
2013-11-04 16:18:00,43.5,19.5,29.91,NW,325,0.0,1.0,38,0.00,,,0.00,Wunderground v.1.15,2013-11-04 23:18:00,
2013-11-04 16:19:00,43.5,19.5,29.90,NW,325,0.0,1.0,38,0.00,,,0.00,Wunderground v.1.15,2013-11-04 23:19:00,
2013-11-04 16:21:00,43.5,19.5,29.90,NW,325,0.0,0.0,38,0.00,,,0.00,Wunderground v.1.15,2013-11-04 23:21:00,
2013-11-04 16:23:00,43.5,20.2,29.90,NW,325,0.0,0.0,39,0.00,,,0.00,Wunderground v.1.15,2013-11-04 23:23:00,
2013-11-04 16:24:00,43.5,18.9,29.90,NW,325,0.0,0.0,37,0.00,,,0.00,Wunderground v.1.15,2013-11-04 23:24:00,
2013-11-04 16:27:00,43.5,19.5,29.90,NW,325,0.0,3.0,38,0.00,,,0.00,Wunderground v.1.15,2013-11-04 23:27:00,
2013-11-04 16:28:00,43.5,20.2,29.90,NW,325,0.0,3.0,39,0.00,,,0.00,Wunderground v.1.15,2013-11-04 23:28:00,
2013-11-04 16:29:00,43.3,20.0,29.90,NW,325,0.0,3.0,39,0.00,,,0.00,Wunderground v.1.15,2013-11-04 23:29:00,
2013-11-04 16:30:00,43.3,20.0,29.90,NW,325,0.0,0.0,39,0.00,,,0.00,Wunderground v.1.15,2013-11-04 23:30:00,
2013-11-04 16:32:00,43.3,19.4,29.90,NW,325,0.0,0.0,38,0.00,,,0.00,Wunderground v.1.15,2013-11-04 23:32:00,
2013-11-04 16:33:00,43.3,18.7,29.90,NW,325,0.0,0.0,37,0.00,,,0.00,Wunderground v.1.15,2013-11-04 23:33:00,
2013-11-04 16:34:00,43.3,18.7,29.90,NW,325,0.0,0.0,37,0.00,,,0.00,Wunderground v.1.15,2013-11-04 23:34:00,
2013-11-04 16:35:00,43.3,18.7,29.90,NW,325,0.0,0.0,37,0.00,,,0.00,Wunderground v.1.15,2013-11-04 23:35:00,
2013-11-04 16:37:00,43.3,18.7,29.90,NW,325,0.0,0.0,37,0.00,,,0.00,Wunderground v.1.15,2013-11-04 23:37:00,
2013-11-04 16:38:00,43.3,18.1,29.90,NW,325,0.0,0.0,36,0.00,,,0.00,Wunderground v.1.15,2013-11-04 23:38:00,
2013-11-04 16:39:00,43.3,18.1,29.90,NW,325,0.0,0.0,36,0.00,,,0.00,Wunderground v.1.15,2013-11-04 23:39:00,
2013-11-04 16:40:00,43.3,17.4,29.90,NW,325,0.0,0.0,35,0.00,,,0.00,Wunderground v.1.15,2013-11-04 23:40:00,
2013-11-04 16:41:00,43.3,19.4,29.90,NW,325,0.0,0.0,38,0.00,,,0.00,Wunderground v.1.15,2013-11-04 23:41:00,
2013-11-04 16:42:00,43.3,19.4,29.90,NW,325,0.0,0.0,38,0.00,,,0.00,Wunderground v.1.15,2013-11-04 23:42:00,
2013-11-04 16:43:00,43.3,19.4,29.90,NW,325,0.0,0.0,38,0.00,,,0.00,Wunderground v.1.15,2013-11-04 23:43:00,
2013-11-04 16:44:00,43.3,18.7,29.90,NW,325,0.0,0.0,37,0.00,,,0.00,Wunderground v.1.15,2013-11-04 23:44:00,
2013-11-04 16:45:00,43.3,19.4,29.90,NW,325,0.0,0.0,38,0.00,,,0.00,Wunderground v.1.15,2013-11-04 23:45:00,
2013-11-04 16:46:00,43.3,20.0,29.90,NW,325,0.0,0.0,39,0.00,,,0.00,Wunderground v.1.15,2013-11-04 23:46:00,
2013-11-04 16:47:00,43.3,20.0,29.90,NW,325,0.0,0.0,39,0.00,,,0.00,Wunderground v.1.15,2013-11-04 23:47:00,
2013-11-04 16:48:00,43.2,21.6,29.90,NW,325,0.0,0.0,42,0.00,,,0.00,Wunderground v.1.15,2013-11-04 23:48:00,
2013-11-04 16:49:00,43.2,21.6,29.90,NW,325,0.0,0.0,42,0.00,,,0.00,Wunderground v.1.15,2013-11-04 23:49:00,
2013-11-04 16:50:00,43.1,21.5,29.90,NW,325,0.0,0.0,42,0.00,,,0.00,Wunderground v.1.15,2013-11-04 23:50:00,
2013-11-04 16:51:00,42.9,21.4,29.90,NW,325,0.0,0.0,42,0.00,,,0.00,Wunderground v.1.15,2013-11-04 23:51:00,
2013-11-04 16:52:00,42.9,21.9,29.90,NW,325,0.0,0.0,43,0.00,,,0.00,Wunderground v.1.15,2013-11-04 23:52:00,
2013-11-04 16:53:00,42.8,21.8,29.90,NW,325,0.0,0.0,43,0.00,,,0.00,Wunderground v.1.15,2013-11-04 23:53:00,
2013-11-04 16:54:00,42.6,21.6,29.90,NW,325,0.0,0.0,43,0.00,,,0.00,Wunderground v.1.15,2013-11-04 23:54:00,
2013-11-04 16:56:00,42.6,21.6,29.90,NW,325,0.0,0.0,43,0.00,,,0.00,Wunderground v.1.15,2013-11-04 23:56:00,
2013-11-04 16:57:00,42.5,22.6,29.90,NW,325,0.0,0.0,45,0.00,,,0.00,Wunderground v.1.15,2013-11-04 23:57:00,
2013-11-04 16:58:00,42.3,22.4,29.90,NW,325,0.0,0.0,45,0.00,,,0.00,Wunderground v.1.15,2013-11-04 23:58:00,
2013-11-04 17:00:00,42.2,22.9,29.90,NW,325,0.0,0.0,46,0.00,,,0.00,Wunderground v.1.15,2013-11-05 00:00:00,
2013-11-04 17:01:00,42.2,22.9,29.90,NW,325,0.0,0.0,46,0.00,,,0.00,Wunderground v.1.15,2013-11-05 00:01:00,
2013-11-04 17:02:00,42.2,23.9,29.90,NW,325,0.0,0.0,48,0.00,,,0.00,Wunderground v.1.15,2013-11-05 00:02:00,
2013-11-04 17:03:00,42.2,24.4,29.90,NW,325,0.0,0.0,49,0.00,,,0.00,Wunderground v.1.15,2013-11-05 00:03:00,
2013-11-04 17:04:00,42.1,24.8,29.90,NW,325,0.0,0.0,50,0.00,,,0.00,Wunderground v.1.15,2013-11-05 00:04:00,
2013-11-04 17:05:00,42.1,24.8,29.90,NW,325,0.0,0.0,50,0.00,,,0.00,Wunderground v.1.15,2013-11-05 00:05:00,
2013-11-04 17:06:00,41.9,24.6,29.90,NW,325,0.0,0.0,50,0.00,,,0.00,Wunderground v.1.15,2013-11-05 00:06:00,
2013-11-04 17:08:00,41.8,24.5,29.90,NW,325,0.0,0.0,50,0.00,,,0.00,Wunderground v.1.15,2013-11-05 00:08:00,
2013-11-04 17:09:00,41.6,24.3,29.90,NW,325,0.0,0.0,50,0.00,,,0.00,Wunderground v.1.15,2013-11-05 00:09:00,
2013-11-04 17:12:00,41.3,24.0,29.90,NW,325,0.0,0.0,50,0.00,,,0.00,Wunderground v.1.15,2013-11-05 00:12:00,
2013-11-04 17:13:00,41.2,24.4,29.90,NW,325,0.0,0.0,51,0.00,,,0.00,Wunderground v.1.15,2013-11-05 00:13:00,
2013-11-04 17:14:00,41.1,24.3,29.90,NW,325,0.0,0.0,51,0.00,,,0.00,Wunderground v.1.15,2013-11-05 00:14:00,
2013-11-04 17:17:00,40.6,23.9,29.90,NW,325,0.0,0.0,51,0.00,,,0.00,Wunderground v.1.15,2013-11-05 00:17:00,
2013-11-04 17:18:00,40.5,23.8,29.93,NW,325,0.0,0.0,51,0.00,,,0.00,Wunderground v.1.15,2013-11-05 00:18:00,
2013-11-04 17:19:00,40.5,23.8,29.93,NW,325,0.0,0.0,51,0.00,,,0.00,Wunderground v.1.15,2013-11-05 00:19:00,
2013-11-04 17:20:00,40.5,24.7,29.93,NW,325,0.0,0.0,53,0.00,,,0.00,Wunderground v.1.15,2013-11-05 00:20:00,
2013-11-04 17:22:00,40.2,24.4,29.93,NW,325,0.0,0.0,53,0.00,,,0.00,Wunderground v.1.15,2013-11-05 00:22:00,
2013-11-04 17:23:00,40.2,24.4,29.93,NW,325,0.0,0.0,53,0.00,,,0.00,Wunderground v.1.15,2013-11-05 00:23:00,
2013-11-04 17:24:00,40.1,24.3,29.93,NW,325,0.0,0.0,53,0.00,,,0.00,Wunderground v.1.15,2013-11-05 00:24:00,
2013-11-04 17:25:00,40.1,24.3,29.93,NW,325,0.0,0.0,53,0.00,,,0.00,Wunderground v.1.15,2013-11-05 00:25:00,
2013-11-04 17:28:00,39.9,24.6,29.93,NW,325,0.0,0.0,54,0.00,,,0.00,Wunderground v.1.15,2013-11-05 00:28:00,
2013-11-04 17:29:00,39.9,24.6,29.93,NW,325,0.0,0.0,54,0.00,,,0.00,Wunderground v.1.15,2013-11-05 00:29:00,
2013-11-04 17:30:00,39.8,24.5,29.93,NW,325,0.0,0.0,54,0.00,,,0.00,Wunderground v.1.15,2013-11-05 00:30:00,
2013-11-04 17:33:00,39.8,24.9,29.92,NW,325,0.0,0.0,55,0.00,,,0.00,Wunderground v.1.15,2013-11-05 00:33:00,
2013-11-04 17:34:00,39.6,24.7,29.92,NW,325,0.0,0.0,55,0.00,,,0.00,Wunderground v.1.15,2013-11-05 00:34:00,
2013-11-04 17:35:00,39.6,24.7,29.92,NW,325,0.0,0.0,55,0.00,,,0.00,Wunderground v.1.15,2013-11-05 00:35:00,
2013-11-04 17:38:00,39.3,24.9,29.92,NW,325,0.0,0.0,56,0.00,,,0.00,Wunderground v.1.15,2013-11-05 00:38:00,
2013-11-04 17:40:00,39.2,24.8,29.92,NW,325,0.0,0.0,56,0.00,,,0.00,Wunderground v.1.15,2013-11-05 00:40:00,
2013-11-04 17:41:00,39.2,24.8,29.92,NW,325,0.0,0.0,56,0.00,,,0.00,Wunderground v.1.15,2013-11-05 00:41:00,
2013-11-04 17:44:00,39.1,25.1,29.92,NW,325,0.0,0.0,57,0.00,,,0.00,Wunderground v.1.15,2013-11-05 00:44:00,
2013-11-04 17:45:00,38.9,25.4,29.92,NW,325,0.0,0.0,58,0.00,,,0.00,Wunderground v.1.15,2013-11-05 00:45:00,
2013-11-04 17:46:00,38.9,25.4,29.92,NW,325,0.0,0.0,58,0.00,,,0.00,Wunderground v.1.15,2013-11-05 00:46:00,
2013-11-04 17:49:00,38.8,24.9,29.95,NW,325,0.0,0.0,57,0.00,,,0.00,Wunderground v.1.15,2013-11-05 00:49:00,
2013-11-04 17:50:00,38.8,24.4,29.95,NW,325,0.0,0.0,56,0.00,,,0.00,Wunderground v.1.15,2013-11-05 00:50:00,
2013-11-04 17:51:00,38.8,24.4,29.95,NW,325,0.0,0.0,56,0.00,,,0.00,Wunderground v.1.15,2013-11-05 00:51:00,
2013-11-04 17:54:00,38.8,24.4,29.95,NW,325,0.0,0.0,56,0.00,,,0.00,Wunderground v.1.15,2013-11-05 00:54:00,
2013-11-04 17:55:00,38.8,25.3,29.95,NW,325,0.0,0.0,58,0.00,,,0.00,Wunderground v.1.15,2013-11-05 00:55:00,
2013-11-04 17:56:00,38.8,25.3,29.95,NW,325,0.0,0.0,58,0.00,,,0.00,Wunderground v.1.15,2013-11-05 00:56:00,
2013-11-04 17:57:00,38.6,25.5,29.95,NW,325,0.0,0.0,59,0.00,,,0.00,Wunderground v.1.15,2013-11-05 00:57:00,
2013-11-04 17:59:00,38.6,25.1,29.95,NW,325,0.0,0.0,58,0.00,,,0.00,Wunderground v.1.15,2013-11-05 00:59:00,
2013-11-04 18:01:00,38.5,25.0,29.95,NW,325,3.0,3.0,58,0.00,,,0.00,Wunderground v.1.15,2013-11-05 01:01:00,
2013-11-04 18:02:00,38.5,24.6,29.95,NW,325,0.0,3.0,57,0.00,,,0.00,Wunderground v.1.15,2013-11-05 01:02:00,
2013-11-04 18:04:00,38.6,24.2,29.95,NW,325,0.0,3.0,56,0.00,,,0.00,Wunderground v.1.15,2013-11-05 01:04:00,
2013-11-04 18:06:00,38.6,24.2,29.95,NW,325,0.0,3.0,56,0.00,,,0.00,Wunderground v.1.15,2013-11-05 01:06:00,
2013-11-04 18:07:00,38.6,24.2,29.95,NW,325,0.0,3.0,56,0.00,,,0.00,Wunderground v.1.15,2013-11-05 01:07:00,
2013-11-04 18:08:00,38.8,24.4,29.95,NW,325,0.0,3.0,56,0.00,,,0.00,Wunderground v.1.15,2013-11-05 01:08:00,
2013-11-04 18:10:00,38.8,24.9,29.95,NW,325,0.0,1.0,57,0.00,,,0.00,Wunderground v.1.15,2013-11-05 01:10:00,
2013-11-04 18:11:00,38.9,24.9,29.95,NW,325,3.0,4.0,57,0.00,,,0.00,Wunderground v.1.15,2013-11-05 01:11:00,
2013-11-04 18:12:00,39.1,26.0,29.95,NW,325,0.0,4.0,59,0.00,,,0.00,Wunderground v.1.15,2013-11-05 01:12:00,
2013-11-04 18:13:00,39.1,26.0,29.95,NW,325,2.0,4.0,59,0.00,,,0.00,Wunderground v.1.15,2013-11-05 01:13:00,
2013-11-04 18:14:00,39.1,26.0,29.95,NW,325,1.0,4.0,59,0.00,,,0.00,Wunderground v.1.15,2013-11-05 01:14:00,
2013-11-04 18:16:00,39.3,26.2,29.95,NW,317,0.0,7.0,59,0.00,,,0.00,Wunderground v.1.15,2013-11-05 01:16:00,
2013-11-04 18:17:00,39.5,26.8,29.95,NW,315,0.0,7.0,60,0.00,,,0.00,Wunderground v.1.15,2013-11-05 01:17:00,
2013-11-04 18:18:00,39.5,26.8,29.95,NW,315,4.0,7.0,60,0.00,,,0.00,Wunderground v.1.15,2013-11-05 01:18:00,
2013-11-04 18:19:00,39.6,26.8,29.95,NW,314,3.0,7.0,60,0.00,,,0.00,Wunderground v.1.15,2013-11-05 01:19:00,
2013-11-04 18:21:00,39.8,27.0,29.95,WNW,302,7.0,10.0,60,0.00,,,0.00,Wunderground v.1.15,2013-11-05 01:21:00,
2013-11-04 18:22:00,39.9,26.7,29.95,NW,304,0.0,10.0,59,0.00,,,0.00,Wunderground v.1.15,2013-11-05 01:22:00,
2013-11-04 18:24:00,40.1,26.9,29.95,WNW,290,2.0,11.0,59,0.00,,,0.00,Wunderground v.1.15,2013-11-05 01:24:00,
2013-11-04 18:26:00,40.2,27.0,29.95,WNW,292,2.0,11.0,59,0.00,,,0.00,Wunderground v.1.15,2013-11-05 01:26:00,
2013-11-04 18:27:00,40.2,27.0,29.95,WNW,292,2.0,11.0,59,0.00,,,0.00,Wunderground v.1.15,2013-11-05 01:27:00,
2013-11-04 18:29:00,40.3,27.1,29.95,WNW,288,4.0,11.0,59,0.00,,,0.00,Wunderground v.1.15,2013-11-05 01:29:00,
2013-11-04 18:31:00,40.5,27.3,29.95,WNW,294,1.0,6.0,59,0.00,,,0.00,Wunderground v.1.15,2013-11-05 01:31:00,
2013-11-04 18:32:00,40.5,27.3,29.95,WNW,294,0.0,6.0,59,0.00,,,0.00,Wunderground v.1.15,2013-11-05 01:32:00,
2013-11-04 18:34:00,40.5,27.7,29.96,WNW,286,4.0,10.0,60,0.00,,,0.00,Wunderground v.1.15,2013-11-05 01:34:00,
2013-11-04 18:35:00,40.5,27.7,29.96,WNW,286,3.0,10.0,60,0.00,,,0.00,Wunderground v.1.15,2013-11-05 01:35:00,
2013-11-04 18:37:00,40.6,27.8,29.96,WNW,293,6.0,10.0,60,0.00,,,0.00,Wunderground v.1.15,2013-11-05 01:37:00,
2013-11-04 18:38:00,40.6,27.8,29.96,WNW,300,6.0,10.0,60,0.00,,,0.00,Wunderground v.1.15,2013-11-05 01:38:00,
2013-11-04 18:39:00,40.6,27.8,29.96,WNW,300,5.0,10.0,60,0.00,,,0.00,Wunderground v.1.15,2013-11-05 01:39:00,
2013-11-04 18:41:00,40.6,28.2,29.96,WNW,300,7.0,8.0,61,0.00,,,0.00,Wunderground v.1.15,2013-11-05 01:41:00,
2013-11-04 18:42:00,40.6,28.2,29.96,WNW,298,1.0,8.0,61,0.00,,,0.00,Wunderground v.1.15,2013-11-05 01:42:00,
2013-11-04 18:43:00,40.6,28.2,29.96,WNW,301,4.0,9.0,61,0.00,,,0.00,Wunderground v.1.15,2013-11-05 01:43:00,
2013-11-04 18:46:00,40.6,28.2,29.96,WNW,299,1.0,9.0,61,0.00,,,0.00,Wunderground v.1.15,2013-11-05 01:46:00,
2013-11-04 18:47:00,40.6,28.2,29.96,NW,305,5.0,9.0,61,0.00,,,0.00,Wunderground v.1.15,2013-11-05 01:47:00,
2013-11-04 18:48:00,40.6,28.6,29.96,NW,305,3.0,9.0,62,0.00,,,0.00,Wunderground v.1.15,2013-11-05 01:48:00,
2013-11-04 18:52:00,40.6,28.6,29.97,WNW,300,7.0,9.0,62,0.00,,,0.00,Wunderground v.1.15,2013-11-05 01:52:00,
2013-11-04 18:53:00,40.6,28.6,29.97,WNW,299,4.0,9.0,62,0.00,,,0.00,Wunderground v.1.15,2013-11-05 01:53:00,
2013-11-04 18:54:00,40.6,28.6,29.97,WNW,296,5.0,9.0,62,0.00,,,0.00,Wunderground v.1.15,2013-11-05 01:54:00,
2013-11-04 18:57:00,40.6,29.0,29.97,WNW,292,6.0,9.0,63,0.00,,,0.00,Wunderground v.1.15,2013-11-05 01:57:00,
2013-11-04 18:58:00,40.6,29.0,29.97,WNW,300,2.0,9.0,63,0.00,,,0.00,Wunderground v.1.15,2013-11-05 01:58:00,
2013-11-04 19:00:00,40.6,28.6,29.97,WNW,296,3.0,5.0,62,0.00,,,0.00,Wunderground v.1.15,2013-11-05 02:00:00,
2013-11-04 19:02:00,40.5,28.9,29.97,WNW,296,0.0,6.0,63,0.00,,,0.00,Wunderground v.1.15,2013-11-05 02:02:00,
2013-11-04 19:03:00,40.5,28.9,29.97,WNW,290,8.0,10.0,63,0.00,,,0.00,Wunderground v.1.15,2013-11-05 02:03:00,
2013-11-04 19:04:00,40.5,28.5,29.97,WNW,298,5.0,11.0,62,0.00,,,0.00,Wunderground v.1.15,2013-11-05 02:04:00,
2013-11-04 19:05:00,40.5,28.5,29.97,WNW,298,1.0,11.0,62,0.00,,,0.00,Wunderground v.1.15,2013-11-05 02:05:00,
2013-11-04 19:06:00,40.5,28.5,29.97,WNW,297,2.0,11.0,62,0.00,,,0.00,Wunderground v.1.15,2013-11-05 02:06:00,
2013-11-04 19:07:00,40.5,28.5,29.97,WNW,290,5.0,11.0,62,0.00,,,0.00,Wunderground v.1.15,2013-11-05 02:07:00,
2013-11-04 19:08:00,40.5,28.5,29.97,WNW,290,0.0,11.0,62,0.00,,,0.00,Wunderground v.1.15,2013-11-05 02:08:00,
2013-11-04 19:09:00,40.5,28.5,29.97,West,272,6.0,11.0,62,0.00,,,0.00,Wunderground v.1.15,2013-11-05 02:09:00,
2013-11-04 19:10:00,40.3,27.9,29.97,NW,313,7.0,9.0,61,0.00,,,0.00,Wunderground v.1.15,2013-11-05 02:10:00,
2013-11-04 19:11:00,40.3,27.9,29.97,WNW,282,6.0,9.0,61,0.00,,,0.00,Wunderground v.1.15,2013-11-05 02:11:00,
2013-11-04 19:12:00,40.3,27.9,29.97,WNW,293,5.0,9.0,61,0.00,,,0.00,Wunderground v.1.15,2013-11-05 02:12:00,
2013-11-04 19:13:00,40.3,27.9,29.97,West,281,4.0,9.0,61,0.00,,,0.00,Wunderground v.1.15,2013-11-05 02:13:00,
2013-11-04 19:14:00,40.3,27.9,29.97,WNW,299,2.0,13.0,61,0.00,,,0.00,Wunderground v.1.15,2013-11-05 02:14:00,
2013-11-04 19:15:00,40.3,27.9,29.97,WNW,290,10.0,13.0,61,0.00,,,0.00,Wunderground v.1.15,2013-11-05 02:15:00,
2013-11-04 19:17:00,40.3,27.9,29.97,WNW,292,9.0,13.0,61,0.00,,,0.00,Wunderground v.1.15,2013-11-05 02:17:00,
2013-11-04 19:18:00,40.3,27.9,29.95,WNW,292,4.0,13.0,61,0.00,,,0.00,Wunderground v.1.15,2013-11-05 02:18:00,
2013-11-04 19:20:00,40.3,27.9,29.95,West,277,4.0,5.0,61,0.00,,,0.00,Wunderground v.1.15,2013-11-05 02:20:00,
2013-11-04 19:21:00,40.3,27.5,29.95,WNW,282,5.0,7.0,60,0.00,,,0.00,Wunderground v.1.15,2013-11-05 02:21:00,
2013-11-04 19:22:00,40.2,27.4,29.95,WNW,299,6.0,9.0,60,0.00,,,0.00,Wunderground v.1.15,2013-11-05 02:22:00,
2013-11-04 19:23:00,40.2,27.4,29.95,WNW,297,4.0,11.0,60,0.00,,,0.00,Wunderground v.1.15,2013-11-05 02:23:00,
2013-11-04 19:24:00,40.2,27.4,29.95,WNW,297,3.0,11.0,60,0.00,,,0.00,Wunderground v.1.15,2013-11-05 02:24:00,
2013-11-04 19:25:00,40.2,27.4,29.95,WNW,292,5.0,11.0,60,0.00,,,0.00,Wunderground v.1.15,2013-11-05 02:25:00,
2013-11-04 19:26:00,40.2,27.4,29.95,WNW,294,5.0,11.0,60,0.00,,,0.00,Wunderground v.1.15,2013-11-05 02:26:00,
2013-11-04 19:28:00,40.2,27.0,29.95,WNW,283,5.0,11.0,59,0.00,,,0.00,Wunderground v.1.15,2013-11-05 02:28:00,
2013-11-04 19:29:00,40.2,27.0,29.95,WNW,294,10.0,11.0,59,0.00,,,0.00,Wunderground v.1.15,2013-11-05 02:29:00,
2013-11-04 19:30:00,40.2,27.0,29.95,WNW,298,3.0,5.0,59,0.00,,,0.00,Wunderground v.1.15,2013-11-05 02:30:00,
2013-11-04 19:31:00,40.2,27.4,29.95,WNW,295,4.0,7.0,60,0.00,,,0.00,Wunderground v.1.15,2013-11-05 02:31:00,
2013-11-04 19:33:00,40.2,27.0,29.96,WNW,295,5.0,10.0,59,0.00,,,0.00,Wunderground v.1.15,2013-11-05 02:33:00,
2013-11-04 19:34:00,40.2,27.0,29.96,WNW,288,5.0,10.0,59,0.00,,,0.00,Wunderground v.1.15,2013-11-05 02:34:00,
2013-11-04 19:35:00,40.2,27.4,29.96,WNW,302,7.0,10.0,60,0.00,,,0.00,Wunderground v.1.15,2013-11-05 02:35:00,
2013-11-04 19:37:00,40.2,27.4,29.96,WNW,298,5.0,10.0,60,0.00,,,0.00,Wunderground v.1.15,2013-11-05 02:37:00,
2013-11-04 19:38:00,40.2,27.4,29.96,WNW,292,9.0,11.0,60,0.00,,,0.00,Wunderground v.1.15,2013-11-05 02:38:00,
2013-11-04 19:39:00,40.2,27.4,29.96,WNW,285,5.0,11.0,60,0.00,,,0.00,Wunderground v.1.15,2013-11-05 02:39:00,
2013-11-04 19:40:00,40.2,27.4,29.96,WNW,295,7.0,8.0,60,0.00,,,0.00,Wunderground v.1.15,2013-11-05 02:40:00,
2013-11-04 19:42:00,40.2,27.8,29.96,NW,308,6.0,11.0,61,0.00,,,0.00,Wunderground v.1.15,2013-11-05 02:42:00,
2013-11-04 19:43:00,40.1,27.7,29.96,NW,315,9.0,15.0,61,0.00,,,0.00,Wunderground v.1.15,2013-11-05 02:43:00,
2013-11-04 19:44:00,40.1,27.7,29.96,NW,309,6.0,15.0,61,0.00,,,0.00,Wunderground v.1.15,2013-11-05 02:44:00,
2013-11-04 19:45:00,40.1,27.7,29.96,WNW,297,9.0,15.0,61,0.00,,,0.00,Wunderground v.1.15,2013-11-05 02:45:00,
2013-11-04 19:48:00,40.1,28.1,29.96,NW,321,13.0,15.0,62,0.00,,,0.00,Wunderground v.1.15,2013-11-05 02:48:00,
2013-11-04 19:49:00,40.1,27.7,29.96,NW,314,3.0,15.0,61,0.00,,,0.00,Wunderground v.1.15,2013-11-05 02:49:00,
2013-11-04 19:50:00,40.1,27.7,29.96,NNW,331,12.0,12.0,61,0.00,,,0.00,Wunderground v.1.15,2013-11-05 02:50:00,
2013-11-04 19:51:00,40.1,27.7,29.96,NW,313,6.0,13.0,61,0.00,,,0.00,Wunderground v.1.15,2013-11-05 02:51:00,
2013-11-04 19:53:00,39.9,27.5,29.96,NW,307,5.0,13.0,61,0.00,,,0.00,Wunderground v.1.15,2013-11-05 02:53:00,
2013-11-04 19:54:00,39.9,27.9,29.96,WSW,244,11.0,13.0,62,0.00,,,0.00,Wunderground v.1.15,2013-11-05 02:54:00,
2013-11-04 19:55:00,39.9,27.9,29.96,WSW,248,7.0,13.0,62,0.00,,,0.00,Wunderground v.1.15,2013-11-05 02:55:00,
2013-11-04 19:56:00,39.9,26.7,29.96,West,273,4.0,13.0,59,0.00,,,0.00,Wunderground v.1.15,2013-11-05 02:56:00,
2013-11-04 19:58:00,39.8,26.2,29.96,West,273,5.0,13.0,58,0.00,,,0.00,Wunderground v.1.15,2013-11-05 02:58:00,
2013-11-04 19:59:00,39.8,26.2,29.96,West,273,5.0,13.0,58,0.00,,,0.00,Wunderground v.1.15,2013-11-05 02:59:00,
2013-11-04 20:00:00,39.8,26.2,29.96,West,273,5.0,6.0,58,0.00,,,0.00,Wunderground v.1.15,2013-11-05 03:00:00,
2013-11-04 20:03:00,39.6,25.6,29.96,WNW,282,7.0,10.0,57,0.00,,,0.00,Wunderground v.1.15,2013-11-05 03:03:00,
2013-11-04 20:05:00,39.6,25.6,29.96,WNW,288,7.0,11.0,57,0.00,,,0.00,Wunderground v.1.15,2013-11-05 03:05:00,
2013-11-04 20:06:00,39.6,25.6,29.96,West,275,10.0,11.0,57,0.00,,,0.00,Wunderground v.1.15,2013-11-05 03:06:00,
2013-11-04 20:08:00,39.6,25.6,29.96,WSW,250,7.0,11.0,57,0.00,,,0.00,Wunderground v.1.15,2013-11-05 03:08:00,
2013-11-04 20:09:00,39.5,25.5,29.96,West,272,4.0,13.0,57,0.00,,,0.00,Wunderground v.1.15,2013-11-05 03:09:00,
2013-11-04 20:10:00,39.5,25.5,29.96,WNW,282,3.0,6.0,57,0.00,,,0.00,Wunderground v.1.15,2013-11-05 03:10:00,
2013-11-04 20:11:00,39.5,25.5,29.96,West,281,3.0,6.0,57,0.00,,,0.00,Wunderground v.1.15,2013-11-05 03:11:00,
2013-11-04 20:13:00,39.3,25.7,29.96,WNW,284,6.0,12.0,58,0.00,,,0.00,Wunderground v.1.15,2013-11-05 03:13:00,
2013-11-04 20:14:00,39.3,25.7,29.96,WNW,284,12.0,12.0,58,0.00,,,0.00,Wunderground v.1.15,2013-11-05 03:14:00,
2013-11-04 20:15:00,39.2,25.2,29.96,WNW,282,9.0,12.0,57,0.00,,,0.00,Wunderground v.1.15,2013-11-05 03:15:00,
2013-11-04 20:16:00,39.2,25.2,29.96,WNW,288,6.0,12.0,57,0.00,,,0.00,Wunderground v.1.15,2013-11-05 03:16:00,
2013-11-04 20:18:00,39.2,24.8,29.94,West,270,9.0,12.0,56,0.00,,,0.00,Wunderground v.1.15,2013-11-05 03:18:00,
2013-11-04 20:19:00,39.1,24.7,29.94,West,276,7.0,12.0,56,0.00,,,0.00,Wunderground v.1.15,2013-11-05 03:19:00,
2013-11-04 20:20:00,39.1,24.7,29.94,West,273,7.0,12.0,56,0.00,,,0.00,Wunderground v.1.15,2013-11-05 03:20:00,
2013-11-04 20:21:00,39.1,24.7,29.94,West,271,7.0,7.0,56,0.00,,,0.00,Wunderground v.1.15,2013-11-05 03:21:00,
2013-11-04 20:22:00,39.1,25.1,29.94,WNW,296,5.0,9.0,57,0.00,,,0.00,Wunderground v.1.15,2013-11-05 03:22:00,
2013-11-04 20:23:00,39.1,26.0,29.94,WNW,299,7.0,12.0,59,0.00,,,0.00,Wunderground v.1.15,2013-11-05 03:23:00,
2013-11-04 20:24:00,39.1,26.0,29.94,WNW,302,7.0,12.0,59,0.00,,,0.00,Wunderground v.1.15,2013-11-05 03:24:00,
2013-11-04 20:25:00,39.1,26.4,29.94,WNW,290,6.0,14.0,60,0.00,,,0.00,Wunderground v.1.15,2013-11-05 03:25:00,
2013-11-04 20:26:00,38.9,26.2,29.94,WNW,290,9.0,14.0,60,0.00,,,0.00,Wunderground v.1.15,2013-11-05 03:26:00,
2013-11-04 20:27:00,38.9,26.2,29.94,WNW,298,10.0,14.0,60,0.00,,,0.00,Wunderground v.1.15,2013-11-05 03:27:00,
2013-11-04 20:29:00,38.9,26.6,29.94,WNW,298,11.0,15.0,61,0.00,,,0.00,Wunderground v.1.15,2013-11-05 03:29:00,
2013-11-04 20:30:00,38.8,26.5,29.94,NW,307,10.0,10.0,61,0.00,,,0.00,Wunderground v.1.15,2013-11-05 03:30:00,
2013-11-04 20:31:00,38.8,26.5,29.94,NW,309,10.0,11.0,61,0.00,,,0.00,Wunderground v.1.15,2013-11-05 03:31:00,
2013-11-04 20:32:00,38.8,26.9,29.94,NW,309,7.0,11.0,62,0.00,,,0.00,Wunderground v.1.15,2013-11-05 03:32:00,
2013-11-04 20:33:00,38.8,26.9,29.94,WNW,298,5.0,11.0,62,0.00,,,0.00,Wunderground v.1.15,2013-11-05 03:33:00,
2013-11-04 20:34:00,38.6,26.7,29.95,WNW,290,4.0,11.0,62,0.00,,,0.00,Wunderground v.1.15,2013-11-05 03:34:00,
2013-11-04 20:35:00,38.6,26.7,29.95,WNW,288,8.0,11.0,62,0.00,,,0.00,Wunderground v.1.15,2013-11-05 03:35:00,
2013-11-04 20:36:00,38.6,26.7,29.95,WNW,298,5.0,11.0,62,0.00,,,0.00,Wunderground v.1.15,2013-11-05 03:36:00,
2013-11-04 20:37:00,38.6,26.7,29.95,WNW,298,2.0,11.0,62,0.00,,,0.00,Wunderground v.1.15,2013-11-05 03:37:00,
2013-11-04 20:38:00,38.5,26.6,29.95,WNW,298,3.0,11.0,62,0.00,,,0.00,Wunderground v.1.15,2013-11-05 03:38:00,
2013-11-04 20:39:00,38.5,26.2,29.95,WNW,298,1.0,11.0,61,0.00,,,0.00,Wunderground v.1.15,2013-11-05 03:39:00,
2013-11-04 20:40:00,38.5,26.2,29.95,WNW,298,5.0,6.0,61,0.00,,,0.00,Wunderground v.1.15,2013-11-05 03:40:00,
2013-11-04 20:41:00,38.5,26.2,29.95,WNW,298,2.0,6.0,61,0.00,,,0.00,Wunderground v.1.15,2013-11-05 03:41:00,
2013-11-04 20:42:00,38.3,26.0,29.95,WNW,292,6.0,9.0,61,0.00,,,0.00,Wunderground v.1.15,2013-11-05 03:42:00,
2013-11-04 20:43:00,38.3,26.0,29.95,WNW,291,1.0,9.0,61,0.00,,,0.00,Wunderground v.1.15,2013-11-05 03:43:00,
2013-11-04 20:44:00,38.3,26.0,29.95,WSW,248,5.0,9.0,61,0.00,,,0.00,Wunderground v.1.15,2013-11-05 03:44:00,
2013-11-04 20:45:00,38.2,25.9,29.95,WSW,250,3.0,9.0,61,0.00,,,0.00,Wunderground v.1.15,2013-11-05 03:45:00,
2013-11-04 20:46:00,38.2,25.9,29.95,WSW,250,2.0,9.0,61,0.00,,,0.00,Wunderground v.1.15,2013-11-05 03:46:00,
2013-11-04 20:47:00,38.2,25.9,29.95,WSW,250,3.0,9.0,61,0.00,,,0.00,Wunderground v.1.15,2013-11-05 03:47:00,
2013-11-04 20:50:00,38.0,26.1,29.97,WNW,293,5.0,5.0,62,0.00,,,0.00,Wunderground v.1.15,2013-11-05 03:50:00,
2013-11-04 20:52:00,38.0,26.1,29.97,WNW,296,5.0,6.0,62,0.00,,,0.00,Wunderground v.1.15,2013-11-05 03:52:00,
2013-11-04 20:53:00,38.0,26.5,29.97,WNW,293,6.0,11.0,63,0.00,,,0.00,Wunderground v.1.15,2013-11-05 03:53:00,
2013-11-04 20:55:00,37.9,26.8,29.97,WNW,285,3.0,11.0,64,0.00,,,0.00,Wunderground v.1.15,2013-11-05 03:55:00,
2013-11-04 20:56:00,37.9,26.8,29.97,WNW,289,3.0,11.0,64,0.00,,,0.00,Wunderground v.1.15,2013-11-05 03:56:00,
2013-11-04 20:57:00,37.9,27.2,29.97,NW,315,10.0,11.0,65,0.00,,,0.00,Wunderground v.1.15,2013-11-05 03:57:00,
2013-11-04 20:58:00,37.9,27.2,29.97,NNW,327,6.0,11.0,65,0.00,,,0.00,Wunderground v.1.15,2013-11-05 03:58:00,
2013-11-04 21:01:00,37.6,27.3,29.97,NW,315,3.0,6.0,66,0.00,,,0.00,Wunderground v.1.15,2013-11-05 04:01:00,
2013-11-04 21:02:00,37.6,27.6,29.97,NW,310,7.0,10.0,67,0.00,,,0.00,Wunderground v.1.15,2013-11-05 04:02:00,
2013-11-04 21:03:00,37.6,27.6,29.97,NW,306,7.0,10.0,67,0.00,,,0.00,Wunderground v.1.15,2013-11-05 04:03:00,
2013-11-04 21:04:00,37.5,27.9,29.97,NW,306,10.0,10.0,68,0.00,,,0.00,Wunderground v.1.15,2013-11-05 04:04:00,
2013-11-04 21:06:00,37.3,28.1,29.97,NW,320,6.0,12.0,69,0.00,,,0.00,Wunderground v.1.15,2013-11-05 04:06:00,
2013-11-04 21:07:00,37.3,28.1,29.97,NNW,330,5.0,12.0,69,0.00,,,0.00,Wunderground v.1.15,2013-11-05 04:07:00,
2013-11-04 21:08:00,37.0,28.1,29.97,NW,311,5.0,12.0,70,0.00,,,0.00,Wunderground v.1.15,2013-11-05 04:08:00,
2013-11-04 21:10:00,36.9,28.4,29.97,NNW,331,4.0,12.0,71,0.00,,,0.00,Wunderground v.1.15,2013-11-05 04:10:00,
2013-11-04 21:11:00,36.6,28.4,29.97,NNW,328,4.0,8.0,72,0.00,,,0.00,Wunderground v.1.15,2013-11-05 04:11:00,
2013-11-04 21:12:00,36.6,28.4,29.97,NW,325,7.0,8.0,72,0.00,,,0.00,Wunderground v.1.15,2013-11-05 04:12:00,
2013-11-04 21:13:00,36.5,28.7,29.97,NW,317,4.0,9.0,73,0.00,,,0.00,Wunderground v.1.15,2013-11-05 04:13:00,
2013-11-04 21:15:00,36.3,28.8,29.97,NW,314,2.0,9.0,74,0.00,,,0.00,Wunderground v.1.15,2013-11-05 04:15:00,
2013-11-04 21:17:00,36.2,28.7,29.97,NW,305,0.0,9.0,74,0.00,,,0.00,Wunderground v.1.15,2013-11-05 04:17:00,
2013-11-04 21:18:00,36.2,29.0,29.97,NW,306,5.0,9.0,75,0.00,,,0.00,Wunderground v.1.15,2013-11-05 04:18:00,
2013-11-04 21:21:00,35.9,29.1,29.97,NW,306,4.0,5.0,76,0.00,,,0.00,Wunderground v.1.15,2013-11-05 04:21:00,
2013-11-04 21:22:00,35.9,29.1,29.97,NW,306,1.0,5.0,76,0.00,,,0.00,Wunderground v.1.15,2013-11-05 04:22:00,
2013-11-04 21:23:00,35.9,29.1,29.97,NW,306,0.0,5.0,76,0.00,,,0.00,Wunderground v.1.15,2013-11-05 04:23:00,
2013-11-04 21:24:00,35.8,29.3,29.97,NW,306,5.0,5.0,77,0.00,,,0.00,Wunderground v.1.15,2013-11-05 04:24:00,
2013-11-04 21:26:00,35.8,29.3,29.97,NW,306,0.0,5.0,77,0.00,,,0.00,Wunderground v.1.15,2013-11-05 04:26:00,
2013-11-04 21:28:00,35.6,29.1,29.97,NW,306,0.0,5.0,77,0.00,,,0.00,Wunderground v.1.15,2013-11-05 04:28:00,
2013-11-04 21:29:00,35.6,29.4,29.97,NW,321,6.0,7.0,78,0.00,,,0.00,Wunderground v.1.15,2013-11-05 04:29:00,
2013-11-04 21:30:00,35.6,29.4,29.97,NNW,329,6.0,6.0,78,0.00,,,0.00,Wunderground v.1.15,2013-11-05 04:30:00,
2013-11-04 21:32:00,35.6,29.4,29.97,NNW,336,9.0,10.0,78,0.00,,,0.00,Wunderground v.1.15,2013-11-05 04:32:00,
2013-11-04 21:33:00,35.6,29.4,29.97,NNW,336,7.0,10.0,78,0.00,,,0.00,Wunderground v.1.15,2013-11-05 04:33:00,
2013-11-04 21:34:00,35.6,29.7,29.97,NNW,345,7.0,10.0,79,0.00,,,0.00,Wunderground v.1.15,2013-11-05 04:34:00,
2013-11-04 21:35:00,35.6,29.7,29.97,NNW,345,6.0,10.0,79,0.00,,,0.00,Wunderground v.1.15,2013-11-05 04:35:00,
2013-11-04 21:38:00,35.3,30.1,29.97,North,349,9.0,11.0,81,0.00,,,0.00,Wunderground v.1.15,2013-11-05 04:38:00,
2013-11-04 21:39:00,35.3,30.1,29.97,NNW,348,5.0,11.0,81,0.00,,,0.00,Wunderground v.1.15,2013-11-05 04:39:00,
2013-11-04 21:40:00,35.3,30.1,29.97,North,349,6.0,6.0,81,0.00,,,0.00,Wunderground v.1.15,2013-11-05 04:40:00,
2013-11-04 21:41:00,35.2,30.0,29.97,North,350,4.0,6.0,81,0.00,,,0.00,Wunderground v.1.15,2013-11-05 04:41:00,
2013-11-04 21:43:00,35.2,30.3,29.97,North,350,5.0,6.0,82,0.00,,,0.00,Wunderground v.1.15,2013-11-05 04:43:00,
2013-11-04 21:44:00,35.2,30.3,29.97,North,350,4.0,6.0,82,0.00,,,0.00,Wunderground v.1.15,2013-11-05 04:44:00,
2013-11-04 21:45:00,35.2,30.3,29.97,North,350,6.0,8.0,82,0.00,,,0.00,Wunderground v.1.15,2013-11-05 04:45:00,
2013-11-04 21:46:00,35.0,30.1,29.97,North,5,7.0,10.0,82,0.00,,,0.00,Wunderground v.1.15,2013-11-05 04:46:00,
2013-11-04 21:47:00,35.0,30.4,29.97,North,355,6.0,10.0,83,0.00,,,0.00,Wunderground v.1.15,2013-11-05 04:47:00,
2013-11-04 21:49:00,35.0,30.4,29.97,NNW,343,1.0,10.0,83,0.00,,,0.00,Wunderground v.1.15,2013-11-05 04:49:00,
2013-11-04 21:51:00,34.9,30.3,29.97,NNW,343,2.0,6.0,83,0.00,,,0.00,Wunderground v.1.15,2013-11-05 04:51:00,
2013-11-04 21:53:00,34.9,30.6,29.97,NNW,341,0.0,7.0,84,0.00,,,0.00,Wunderground v.1.15,2013-11-05 04:53:00,
2013-11-04 21:54:00,34.9,30.6,29.97,NNW,346,9.0,9.0,84,0.00,,,0.00,Wunderground v.1.15,2013-11-05 04:54:00,
2013-11-04 21:55:00,34.9,30.6,29.97,NNW,347,6.0,9.0,84,0.00,,,0.00,Wunderground v.1.15,2013-11-05 04:55:00,
2013-11-04 21:56:00,34.7,30.4,29.97,NNW,338,1.0,9.0,84,0.00,,,0.00,Wunderground v.1.15,2013-11-05 04:56:00,
2013-11-04 21:57:00,34.7,30.4,29.97,NNW,338,2.0,9.0,84,0.00,,,0.00,Wunderground v.1.15,2013-11-05 04:57:00,
2013-11-04 21:58:00,34.7,30.4,29.97,NNW,338,2.0,9.0,84,0.00,,,0.00,Wunderground v.1.15,2013-11-05 04:58:00,
2013-11-04 21:59:00,34.7,30.4,29.97,NNW,340,3.0,9.0,84,0.00,,,0.00,Wunderground v.1.15,2013-11-05 04:59:00,
2013-11-04 22:00:00,34.7,30.4,29.97,NNW,340,0.0,4.0,84,0.00,,,0.00,Wunderground v.1.15,2013-11-05 05:00:00,
2013-11-04 22:01:00,34.7,30.4,29.97,NNW,340,0.0,4.0,84,0.00,,,0.00,Wunderground v.1.15,2013-11-05 05:01:00,
2013-11-04 22:02:00,34.7,30.4,29.97,NNW,340,0.0,4.0,84,0.00,,,0.00,Wunderground v.1.15,2013-11-05 05:02:00,
2013-11-04 22:06:00,34.6,30.6,29.98,NNW,339,5.0,6.0,85,0.00,,,0.00,Wunderground v.1.15,2013-11-05 05:06:00,
2013-11-04 22:07:00,34.6,30.6,29.98,NNW,339,4.0,6.0,85,0.00,,,0.00,Wunderground v.1.15,2013-11-05 05:07:00,
2013-11-04 22:08:00,34.6,30.6,29.98,NNW,339,5.0,6.0,85,0.00,,,0.00,Wunderground v.1.15,2013-11-05 05:08:00,
2013-11-04 22:11:00,34.6,30.6,29.98,NNW,339,0.0,2.0,85,0.00,,,0.00,Wunderground v.1.15,2013-11-05 05:11:00,
2013-11-04 22:12:00,34.6,30.6,29.98,NNW,339,0.0,2.0,85,0.00,,,0.00,Wunderground v.1.15,2013-11-05 05:12:00,
2013-11-04 22:13:00,34.6,30.6,29.98,NNW,339,0.0,2.0,85,0.00,,,0.00,Wunderground v.1.15,2013-11-05 05:13:00,
2013-11-04 22:16:00,34.4,30.4,29.98,NNW,339,0.0,2.0,85,0.00,,,0.00,Wunderground v.1.15,2013-11-05 05:16:00,
2013-11-04 22:18:00,34.4,30.4,29.98,NNW,339,0.0,2.0,85,0.00,,,0.00,Wunderground v.1.15,2013-11-05 05:18:00,
2013-11-04 22:19:00,34.4,30.4,29.98,NNW,339,0.0,2.0,85,0.00,,,0.00,Wunderground v.1.15,2013-11-05 05:19:00,
2013-11-04 22:21:00,34.4,30.6,29.98,NNW,339,0.0,0.0,86,0.00,,,0.00,Wunderground v.1.15,2013-11-05 05:21:00,
2013-11-04 22:22:00,34.4,30.6,29.98,NNW,339,0.0,0.0,86,0.00,,,0.00,Wunderground v.1.15,2013-11-05 05:22:00,
2013-11-04 22:23:00,34.4,30.6,29.98,NNW,339,0.0,0.0,86,0.00,,,0.00,Wunderground v.1.15,2013-11-05 05:23:00,
2013-11-04 22:24:00,34.4,30.6,29.98,NNW,339,0.0,0.0,86,0.00,,,0.00,Wunderground v.1.15,2013-11-05 05:24:00,
2013-11-04 22:26:00,34.4,30.6,29.98,NNW,339,0.0,0.0,86,0.00,,,0.00,Wunderground v.1.15,2013-11-05 05:26:00,
2013-11-04 22:27:00,34.4,30.6,29.98,NNW,339,0.0,0.0,86,0.00,,,0.00,Wunderground v.1.15,2013-11-05 05:27:00,
2013-11-04 22:28:00,34.4,30.6,29.98,NNW,339,0.0,0.0,86,0.00,,,0.00,Wunderground v.1.15,2013-11-05 05:28:00,
2013-11-04 22:29:00,34.4,30.6,29.98,NNW,339,0.0,0.0,86,0.00,,,0.00,Wunderground v.1.15,2013-11-05 05:29:00,
2013-11-04 22:30:00,34.4,30.6,29.98,NNW,339,0.0,0.0,86,0.00,,,0.00,Wunderground v.1.15,2013-11-05 05:30:00,
2013-11-04 22:31:00,34.4,30.6,29.98,NNW,339,0.0,0.0,86,0.00,,,0.00,Wunderground v.1.15,2013-11-05 05:31:00,
2013-11-04 22:32:00,34.4,30.6,29.98,NNW,339,0.0,0.0,86,0.00,,,0.00,Wunderground v.1.15,2013-11-05 05:32:00,
2013-11-04 22:34:00,34.4,30.6,29.98,NNW,339,0.0,0.0,86,0.00,,,0.00,Wunderground v.1.15,2013-11-05 05:34:00,
2013-11-04 22:35:00,34.3,30.5,29.98,NNW,339,0.0,0.0,86,0.00,,,0.00,Wunderground v.1.15,2013-11-05 05:35:00,
2013-11-04 22:36:00,34.3,30.5,29.98,NNW,339,0.0,0.0,86,0.00,,,0.00,Wunderground v.1.15,2013-11-05 05:36:00,
2013-11-04 22:37:00,34.3,30.5,29.98,NNW,339,0.0,0.0,86,0.00,,,0.00,Wunderground v.1.15,2013-11-05 05:37:00,
2013-11-04 22:39:00,34.3,30.5,29.98,NNW,339,0.0,0.0,86,0.00,,,0.00,Wunderground v.1.15,2013-11-05 05:39:00,
2013-11-04 22:40:00,34.3,30.8,29.98,NNW,339,0.0,0.0,87,0.00,,,0.00,Wunderground v.1.15,2013-11-05 05:40:00,
2013-11-04 22:41:00,34.3,30.8,29.98,NNW,339,0.0,0.0,87,0.00,,,0.00,Wunderground v.1.15,2013-11-05 05:41:00,
2013-11-04 22:42:00,34.3,30.8,29.98,NNW,339,0.0,0.0,87,0.00,,,0.00,Wunderground v.1.15,2013-11-05 05:42:00,
2013-11-04 22:44:00,34.3,30.8,29.98,NNW,339,0.0,0.0,87,0.00,,,0.00,Wunderground v.1.15,2013-11-05 05:44:00,
2013-11-04 22:45:00,34.4,30.9,29.98,NNW,339,0.0,0.0,87,0.00,,,0.00,Wunderground v.1.15,2013-11-05 05:45:00,
2013-11-04 22:46:00,34.4,30.9,29.98,NNW,339,1.0,2.0,87,0.00,,,0.00,Wunderground v.1.15,2013-11-05 05:46:00,
2013-11-04 22:47:00,34.4,30.9,29.98,NNW,339,0.0,2.0,87,0.00,,,0.00,Wunderground v.1.15,2013-11-05 05:47:00,
2013-11-04 22:48:00,34.4,30.9,29.98,NNW,339,0.0,2.0,87,0.00,,,0.00,Wunderground v.1.15,2013-11-05 05:48:00,
2013-11-04 22:49:00,34.4,30.9,29.98,NNW,339,0.0,2.0,87,0.00,,,0.00,Wunderground v.1.15,2013-11-05 05:49:00,
2013-11-04 22:50:00,34.4,30.9,29.98,NNW,339,0.0,0.0,87,0.00,,,0.00,Wunderground v.1.15,2013-11-05 05:50:00,
2013-11-04 22:51:00,34.4,30.9,29.98,NNW,339,0.0,0.0,87,0.00,,,0.00,Wunderground v.1.15,2013-11-05 05:51:00,
2013-11-04 22:52:00,34.4,30.9,29.98,NNW,339,0.0,0.0,87,0.00,,,0.00,Wunderground v.1.15,2013-11-05 05:52:00,
2013-11-04 22:53:00,34.4,30.9,29.98,NNW,339,0.0,0.0,87,0.00,,,0.00,Wunderground v.1.15,2013-11-05 05:53:00,
2013-11-04 22:54:00,34.6,31.1,29.98,NNW,339,0.0,3.0,87,0.00,,,0.00,Wunderground v.1.15,2013-11-05 05:54:00,
2013-11-04 22:56:00,34.6,31.1,29.98,NNW,339,2.0,4.0,87,0.00,,,0.00,Wunderground v.1.15,2013-11-05 05:56:00,
2013-11-04 22:57:00,34.6,31.1,29.98,NNW,339,1.0,4.0,87,0.00,,,0.00,Wunderground v.1.15,2013-11-05 05:57:00,
2013-11-04 22:58:00,34.6,31.1,29.98,NNW,340,3.0,4.0,87,0.00,,,0.00,Wunderground v.1.15,2013-11-05 05:58:00,
2013-11-04 22:59:00,34.6,31.1,29.98,NNW,340,2.0,4.0,87,0.00,,,0.00,Wunderground v.1.15,2013-11-05 05:59:00,
2013-11-04 23:01:00,34.6,31.1,29.98,NNW,340,4.0,4.0,87,0.00,,,0.00,Wunderground v.1.15,2013-11-05 06:01:00,
2013-11-04 23:03:00,34.7,30.9,29.98,NNW,340,3.0,5.0,86,0.00,,,0.00,Wunderground v.1.15,2013-11-05 06:03:00,
2013-11-04 23:04:00,34.7,30.9,29.97,NNW,340,3.0,5.0,86,0.00,,,0.00,Wunderground v.1.15,2013-11-05 06:04:00,
2013-11-04 23:05:00,34.7,30.9,29.97,NNW,340,0.0,5.0,86,0.00,,,0.00,Wunderground v.1.15,2013-11-05 06:05:00,
2013-11-04 23:06:00,34.9,30.8,29.97,NNW,340,0.0,5.0,85,0.00,,,0.00,Wunderground v.1.15,2013-11-05 06:06:00,
2013-11-04 23:08:00,35.0,30.7,29.97,NNW,340,0.0,5.0,84,0.00,,,0.00,Wunderground v.1.15,2013-11-05 06:08:00,
2013-11-04 23:09:00,35.0,30.7,29.97,NNW,340,0.0,5.0,84,0.00,,,0.00,Wunderground v.1.15,2013-11-05 06:09:00,
2013-11-04 23:10:00,35.0,30.7,29.97,NNW,340,0.0,1.0,84,0.00,,,0.00,Wunderground v.1.15,2013-11-05 06:10:00,
2013-11-04 23:12:00,35.2,30.9,29.97,NNW,340,2.0,5.0,84,0.00,,,0.00,Wunderground v.1.15,2013-11-05 06:12:00,
2013-11-04 23:13:00,35.2,30.9,29.97,NNW,341,2.0,5.0,84,0.00,,,0.00,Wunderground v.1.15,2013-11-05 06:13:00,
2013-11-04 23:14:00,35.2,30.9,29.97,NNW,341,2.0,5.0,84,0.00,,,0.00,Wunderground v.1.15,2013-11-05 06:14:00,
2013-11-04 23:15:00,35.2,30.9,29.97,NNW,341,2.0,5.0,84,0.00,,,0.00,Wunderground v.1.15,2013-11-05 06:15:00,
2013-11-04 23:16:00,35.2,31.1,29.97,NNW,341,1.0,5.0,85,0.00,,,0.00,Wunderground v.1.15,2013-11-05 06:16:00,
2013-11-04 23:17:00,35.0,30.9,29.97,NNW,341,2.0,5.0,85,0.00,,,0.00,Wunderground v.1.15,2013-11-05 06:17:00,
2013-11-04 23:19:00,35.0,30.9,29.97,NNW,341,0.0,5.0,85,0.00,,,0.00,Wunderground v.1.15,2013-11-05 06:19:00,
2013-11-04 23:21:00,34.9,30.8,29.97,NNW,341,1.0,2.0,85,0.00,,,0.00,Wunderground v.1.15,2013-11-05 06:21:00,
2013-11-04 23:23:00,34.9,30.8,29.97,NNW,341,4.0,5.0,85,0.00,,,0.00,Wunderground v.1.15,2013-11-05 06:23:00,
2013-11-04 23:24:00,34.7,30.7,29.97,NNW,341,1.0,5.0,85,0.00,,,0.00,Wunderground v.1.15,2013-11-05 06:24:00,
2013-11-04 23:25:00,34.7,30.7,29.97,NNW,341,5.0,5.0,85,0.00,,,0.00,Wunderground v.1.15,2013-11-05 06:25:00,
2013-11-04 23:26:00,34.7,30.7,29.97,NNW,341,2.0,5.0,85,0.00,,,0.00,Wunderground v.1.15,2013-11-05 06:26:00,
2013-11-04 23:27:00,34.7,30.9,29.97,NNW,341,4.0,5.0,86,0.00,,,0.00,Wunderground v.1.15,2013-11-05 06:27:00,
2013-11-04 23:28:00,34.7,30.9,29.97,NNW,342,4.0,6.0,86,0.00,,,0.00,Wunderground v.1.15,2013-11-05 06:28:00,
2013-11-04 23:29:00,34.6,30.8,29.97,NNW,342,3.0,6.0,86,0.00,,,0.00,Wunderground v.1.15,2013-11-05 06:29:00,
2013-11-04 23:30:00,34.6,30.8,29.97,NNW,342,3.0,5.0,86,0.00,,,0.00,Wunderground v.1.15,2013-11-05 06:30:00,
2013-11-04 23:31:00,34.6,30.8,29.97,NNW,342,4.0,5.0,86,0.00,,,0.00,Wunderground v.1.15,2013-11-05 06:31:00,
2013-11-04 23:32:00,34.6,30.8,29.97,NNW,342,3.0,5.0,86,0.00,,,0.00,Wunderground v.1.15,2013-11-05 06:32:00,
2013-11-04 23:33:00,34.4,30.6,29.97,NNW,342,3.0,5.0,86,0.00,,,0.00,Wunderground v.1.15,2013-11-05 06:33:00,
2013-11-04 23:35:00,34.4,30.9,29.99,NNW,342,0.0,5.0,87,0.00,,,0.00,Wunderground v.1.15,2013-11-05 06:35:00,
2013-11-04 23:36:00,34.3,30.8,29.99,NNW,342,0.0,5.0,87,0.00,,,0.00,Wunderground v.1.15,2013-11-05 06:36:00,
2013-11-04 23:37:00,34.3,30.8,29.99,NNW,342,0.0,5.0,87,0.00,,,0.00,Wunderground v.1.15,2013-11-05 06:37:00,
2013-11-04 23:38:00,34.3,30.8,29.99,NNW,342,0.0,5.0,87,0.00,,,0.00,Wunderground v.1.15,2013-11-05 06:38:00,
2013-11-04 23:39:00,34.3,30.8,29.99,NNW,342,2.0,5.0,87,0.00,,,0.00,Wunderground v.1.15,2013-11-05 06:39:00,
2013-11-04 23:41:00,34.1,30.6,29.99,NNW,342,0.0,2.0,87,0.00,,,0.00,Wunderground v.1.15,2013-11-05 06:41:00,
2013-11-04 23:42:00,34.1,30.6,29.99,NNW,342,0.0,2.0,87,0.00,,,0.00,Wunderground v.1.15,2013-11-05 06:42:00,
2013-11-04 23:43:00,34.1,30.6,29.99,NNW,342,0.0,2.0,87,0.00,,,0.00,Wunderground v.1.15,2013-11-05 06:43:00,
2013-11-04 23:44:00,34.1,30.6,29.99,NNW,342,0.0,2.0,87,0.00,,,0.00,Wunderground v.1.15,2013-11-05 06:44:00,
2013-11-04 23:46:00,34.1,30.9,29.99,NNW,342,0.0,2.0,88,0.00,,,0.00,Wunderground v.1.15,2013-11-05 06:46:00,
2013-11-04 23:47:00,34.1,30.9,29.99,NNW,342,0.0,2.0,88,0.00,,,0.00,Wunderground v.1.15,2013-11-05 06:47:00,
2013-11-04 23:48:00,34.1,30.9,29.99,NNW,342,0.0,2.0,88,0.00,,,0.00,Wunderground v.1.15,2013-11-05 06:48:00,
2013-11-04 23:49:00,34.0,30.8,30.00,NNW,342,0.0,2.0,88,0.00,,,0.00,Wunderground v.1.15,2013-11-05 06:49:00,
2013-11-04 23:52:00,34.0,30.8,30.00,NNW,342,0.0,0.0,88,0.00,,,0.00,Wunderground v.1.15,2013-11-05 06:52:00,
2013-11-04 23:53:00,34.0,30.8,30.00,NNW,342,0.0,0.0,88,0.00,,,0.00,Wunderground v.1.15,2013-11-05 06:53:00,
2013-11-04 23:54:00,34.0,30.8,30.00,NNW,342,0.0,0.0,88,0.00,,,0.00,Wunderground v.1.15,2013-11-05 06:54:00,
2013-11-04 23:57:00,34.0,30.8,30.00,NNW,342,0.0,0.0,88,0.00,,,0.00,Wunderground v.1.15,2013-11-05 06:57:00,
2013-11-04 23:58:00,34.0,30.8,30.00,NNW,342,0.0,0.0,88,0.00,,,0.00,Wunderground v.1.15,2013-11-05 06:58:00,
2013-11-04 23:59:00,34.0,30.8,30.00,NNW,342,0.0,0.0,88,0.00,,,0.00,Wunderground v.1.15,2013-11-05 06:59:00,